Air Quality Table

TIMESTAMP NO2 SO2 PM10 PM2.5 CO TEMP HUM AIRPRES WS WD NO BENZENE
2021-06-18 12:00 31.96 ug/m3 0.13 ug/m3 21.81 ug/m3 13.15 ug/m3 0.26 mg/m3 26.12 C 53.24 % 1,018.26 mbar 2.17 m/s 146.63 Deg 19.16 ug/m3 0.94 ug/m3
2021-06-18 11:00 33.14 ug/m3 0.16 ug/m3 25.54 ug/m3 17.83 ug/m3 0.33 mg/m3 26.01 C 54.28 % 1,018.39 mbar 1.99 m/s 131.08 Deg 21.98 ug/m3 1.1 ug/m3
2021-06-18 10:00 49.89 ug/m3 0.35 ug/m3 23.64 ug/m3 26.13 ug/m3 0.37 mg/m3 25.45 C 55 % 1,018.50 mbar 2.01 m/s 95.37 Deg 32.96 ug/m3 1.05 ug/m3
2021-06-18 09:00 42.24 ug/m3 0.34 ug/m3 23.98 ug/m3 14.94 ug/m3 0.39 mg/m3 24.44 C 61.11 % 1,018.51 mbar 1.94 m/s 49.76 Deg 31.43 ug/m3 0.98 ug/m3
2021-06-18 08:00 48.02 ug/m3 0.51 ug/m3 40.08 ug/m3 16.53 ug/m3 0.41 mg/m3 23.35 C 69.22 % N/A 1.65 m/s 49.03 Deg 37 ug/m3 2.86 ug/m3
2021-06-18 07:00 45.44 ug/m3 0.26 ug/m3 35.03 ug/m3 27.28 ug/m3 0.44 mg/m3 22.97 C 70.58 % N/A 1.05 m/s 143.95 Deg 28.26 ug/m3 0.98 ug/m3
2021-06-18 06:00 34.45 ug/m3 0.07 ug/m3 29.52 ug/m3 5.83 ug/m3 0.3 mg/m3 22.52 C 71.56 % N/A 0.73 m/s 153.73 Deg 14.15 ug/m3 0.94 ug/m3
2021-06-18 05:00 28.32 ug/m3 0.03 ug/m3 14.94 ug/m3 5.63 ug/m3 0.21 mg/m3 22.18 C 72.94 % N/A 0.62 m/s 143.84 Deg 8.07 ug/m3 1.34 ug/m3
2021-06-18 04:00 14.9 ug/m3 -0.01 ug/m3 14.04 ug/m3 4.72 ug/m3 0.17 mg/m3 22.33 C 72.43 % N/A 0.7 m/s 123.52 Deg 6.63 ug/m3 1.54 ug/m3
2021-06-18 03:00 6.87 ug/m3 -0.13 ug/m3 14.48 ug/m3 8.16 ug/m3 0.09 mg/m3 22.51 C 71.49 % N/A 1.04 m/s 192.7 Deg -0.43 ug/m3 0.26 ug/m3
2021-06-18 02:00 6.45 ug/m3 -0.13 ug/m3 21.94 ug/m3 9.35 ug/m3 0.12 mg/m3 22.62 C 70.63 % N/A 1.08 m/s 206.2 Deg 0.2 ug/m3 0.23 ug/m3
2021-06-18 01:00 14.15 ug/m3 -0.1 ug/m3 20.22 ug/m3 10.3 ug/m3 0.13 mg/m3 22.58 C 70.74 % N/A 0.98 m/s 200.9 Deg 1.39 ug/m3 0.34 ug/m3
2021-06-18 00:00 25.59 ug/m3 -0.04 ug/m3 26.09 ug/m3 10.47 ug/m3 0.18 mg/m3 22.64 C 70.18 % N/A 1.79 m/s 168.07 Deg 4.42 ug/m3 1.63 ug/m3
2021-06-17 23:00 35.04 ug/m3 0.11 ug/m3 31.9 ug/m3 18.16 ug/m3 0.26 mg/m3 22.93 C 66.75 % N/A 1.44 m/s 107.6 Deg 11.66 ug/m3 0.65 ug/m3
2021-06-17 22:00 18.71 ug/m3 0.03 ug/m3 32.93 ug/m3 8.97 ug/m3 0.24 mg/m3 22.82 C 67.59 % N/A 0.94 m/s 104.28 Deg 10.07 ug/m3 0.44 ug/m3
2021-06-17 21:00 12.13 ug/m3 -0.05 ug/m3 32.52 ug/m3 17.94 ug/m3 0.17 mg/m3 22.98 C 66.57 % N/A 1.03 m/s 201.83 Deg 2.21 ug/m3 0.47 ug/m3
2021-06-17 20:00 21.96 ug/m3 0.05 ug/m3 29.49 ug/m3 7.31 ug/m3 0.29 mg/m3 23.24 C 64.79 % N/A 1.3 m/s 148.65 Deg 10.82 ug/m3 0.42 ug/m3
2021-06-17 19:00 21.55 ug/m3 0.04 ug/m3 16.3 ug/m3 11.24 ug/m3 0.25 mg/m3 24 C 59.7 % N/A 1.59 m/s 154.38 Deg 10.27 ug/m3 0.47 ug/m3
2021-06-17 18:00 22.84 ug/m3 0.06 ug/m3 19 ug/m3 12.62 ug/m3 0.25 mg/m3 24.83 C 56.05 % N/A 1.87 m/s 168.05 Deg 12.19 ug/m3 0.66 ug/m3
2021-06-17 17:00 18.71 ug/m3 0.05 ug/m3 36.06 ug/m3 10.56 ug/m3 0.25 mg/m3 25.27 C 53.97 % N/A 2.11 m/s 175.68 Deg 8.78 ug/m3 1.03 ug/m3
2021-06-17 16:00 14.13 ug/m3 -0.03 ug/m3 30.59 ug/m3 6.12 ug/m3 0.18 mg/m3 25.27 C 52.67 % N/A 2.46 m/s 177.87 Deg 5.13 ug/m3 0.55 ug/m3
2021-06-17 15:00 18.81 ug/m3 0.02 ug/m3 18.71 ug/m3 10.79 ug/m3 0.25 mg/m3 25.45 C 52.23 % N/A 2.3 m/s 157.4 Deg 10.86 ug/m3 0.71 ug/m3
2021-06-17 14:00 22.52 ug/m3 0.08 ug/m3 14.09 ug/m3 3.55 ug/m3 0.23 mg/m3 25.33 C 53.11 % N/A 2.47 m/s 157.22 Deg 13.55 ug/m3 0.39 ug/m3
2021-06-17 13:00 26.86 ug/m3 0.08 ug/m3 16.98 ug/m3 4.91 ug/m3 0.23 mg/m3 25.43 C 51.77 % N/A 2.25 m/s 165.13 Deg 16.02 ug/m3 0.68 ug/m3
2021-06-17 12:00 27 ug/m3 0.1 ug/m3 16.37 ug/m3 7.74 ug/m3 0.26 mg/m3 25.34 C 51.78 % N/A 2.36 m/s 144.02 Deg 15.47 ug/m3 0.58 ug/m3
2021-06-17 11:00 23.01 ug/m3 0.07 ug/m3 23.23 ug/m3 13.28 ug/m3 0.23 mg/m3 25.17 C 51.95 % N/A 2.44 m/s 178.22 Deg 13.51 ug/m3 0.68 ug/m3
2021-06-17 10:00 29.34 ug/m3 0.13 ug/m3 34.22 ug/m3 17.65 ug/m3 0.28 mg/m3 24.71 C 53.79 % N/A 2.4 m/s 106.28 Deg 20.54 ug/m3 0.49 ug/m3
2021-06-17 09:00 43.55 ug/m3 0.33 ug/m3 42.41 ug/m3 21.39 ug/m3 0.36 mg/m3 24.22 C 58.9 % N/A 2.26 m/s 154.22 Deg 32.45 ug/m3 2.05 ug/m3
2021-06-17 08:00 50.71 ug/m3 0.35 ug/m3 34.89 ug/m3 36.72 ug/m3 0.42 mg/m3 23.85 C 62.75 % N/A 1.49 m/s 118.85 Deg 36 ug/m3 0.94 ug/m3
2021-06-17 07:00 54.43 ug/m3 0.27 ug/m3 40.74 ug/m3 25.12 ug/m3 0.45 mg/m3 22.9 C 69.98 % N/A 1.1 m/s 192.35 Deg 30.53 ug/m3 2.36 ug/m3
2021-06-17 06:00 51.34 ug/m3 0.06 ug/m3 24.99 ug/m3 4.9 ug/m3 0.38 mg/m3 22.25 C 73.41 % N/A 0.46 m/s 215.35 Deg 13.42 ug/m3 1.05 ug/m3
2021-06-17 05:00 31.3 ug/m3 -0.08 ug/m3 23.3 ug/m3 6.67 ug/m3 0.2 mg/m3 21.54 C 76.02 % N/A 0.52 m/s 221.91 Deg 1.62 ug/m3 0.55 ug/m3
2021-06-17 04:00 10.2 ug/m3 -0.15 ug/m3 18.7 ug/m3 10.52 ug/m3 0.15 mg/m3 21.73 C 75.74 % N/A 0.7 m/s 177.03 Deg 0.07 ug/m3 0.31 ug/m3
2021-06-17 03:00 8.88 ug/m3 -0.1 ug/m3 16.38 ug/m3 9.03 ug/m3 0.1 mg/m3 21.95 C 73.99 % N/A 0.53 m/s 222.23 Deg 0.21 ug/m3 0.18 ug/m3
2021-06-17 02:00 4.46 ug/m3 -0.14 ug/m3 14.88 ug/m3 7.83 ug/m3 0.12 mg/m3 22.16 C 72.15 % N/A 0.74 m/s 211.48 Deg -0.47 ug/m3 0.26 ug/m3
2021-06-17 01:00 6.25 ug/m3 -0.09 ug/m3 21.41 ug/m3 11.99 ug/m3 0.13 mg/m3 22.42 C 69.15 % N/A 0.96 m/s 198.28 Deg 1.01 ug/m3 0.23 ug/m3
2021-06-17 00:00 7.6 ug/m3 -0.15 ug/m3 36.04 ug/m3 18.51 ug/m3 0.15 mg/m3 22.57 C 67.8 % N/A 1.06 m/s 182.87 Deg -0.02 ug/m3 0.37 ug/m3
2021-06-16 23:00 12.14 ug/m3 -0.05 ug/m3 32.07 ug/m3 10.74 ug/m3 0.19 mg/m3 22.65 C 68.71 % N/A 1.31 m/s 157.7 Deg 1.84 ug/m3 0.28 ug/m3
2021-06-16 22:00 13.17 ug/m3 -0.07 ug/m3 33.78 ug/m3 18.88 ug/m3 0.17 mg/m3 22.85 C 66.76 % N/A 1.42 m/s 159.82 Deg 2.88 ug/m3 0.44 ug/m3
2021-06-16 21:00 18.27 ug/m3 -0.02 ug/m3 22.56 ug/m3 6.85 ug/m3 0.22 mg/m3 23.12 C 63.24 % N/A 1.46 m/s 154.58 Deg 6.13 ug/m3 0.44 ug/m3
2021-06-16 20:00 16.37 ug/m3 -0 ug/m3 25.54 ug/m3 6 ug/m3 0.21 mg/m3 23.52 C 58.42 % N/A 1.84 m/s 178.05 Deg 4.8 ug/m3 0.61 ug/m3
2021-06-16 19:00 14.9 ug/m3 -0.04 ug/m3 29.46 ug/m3 2.35 ug/m3 0.19 mg/m3 24.35 C 54.35 % N/A 2.24 m/s 182.05 Deg 2.8 ug/m3 0.34 ug/m3
2021-06-16 18:00 14.32 ug/m3 -0.03 ug/m3 28.79 ug/m3 4.71 ug/m3 0.2 mg/m3 24.93 C 51 % N/A 2.43 m/s 184.37 Deg 3.88 ug/m3 1.1 ug/m3
2021-06-16 17:00 18.1 ug/m3 0.05 ug/m3 25.74 ug/m3 3.66 ug/m3 0.19 mg/m3 25.61 C 46.81 % N/A 2.51 m/s 187.72 Deg 7.71 ug/m3 0.34 ug/m3
2021-06-16 16:00 19.26 ug/m3 0.03 ug/m3 25.26 ug/m3 5.7 ug/m3 0.18 mg/m3 26.02 C 41.76 % N/A 2.35 m/s 173.97 Deg 8.59 ug/m3 0.44 ug/m3
2021-06-16 15:00 28.03 ug/m3 0.09 ug/m3 17.54 ug/m3 5.18 ug/m3 0.21 mg/m3 26.45 C 38.08 % N/A 2.54 m/s 147.73 Deg 15.24 ug/m3 0.49 ug/m3
2021-06-16 14:00 27.83 ug/m3 0.11 ug/m3 14.02 ug/m3 6.29 ug/m3 0.22 mg/m3 26.3 C 37.14 % N/A 2.22 m/s 135.68 Deg 16.4 ug/m3 0.47 ug/m3
2021-06-16 13:00 22.03 ug/m3 0.19 ug/m3 22.62 ug/m3 7.92 ug/m3 0.3 mg/m3 23.99 C 56.81 % N/A 4.37 m/s 45.32 Deg 25.89 ug/m3 0.91 ug/m3
2021-06-16 12:00 22.93 ug/m3 0.15 ug/m3 14.56 ug/m3 8.41 ug/m3 0.28 mg/m3 23.41 C 59.66 % N/A 4.13 m/s 52.67 Deg 23.78 ug/m3 0.52 ug/m3
2021-06-16 11:00 24.46 ug/m3 0.21 ug/m3 19.06 ug/m3 15.64 ug/m3 0.29 mg/m3 23.46 C 61.47 % N/A 3.42 m/s 45.22 Deg 29.34 ug/m3 0.81 ug/m3
2021-06-16 10:00 31.21 ug/m3 0.21 ug/m3 33.31 ug/m3 23.81 ug/m3 0.31 mg/m3 23.12 C 64.97 % N/A 3.57 m/s 50.33 Deg 25.69 ug/m3 1.5 ug/m3
2021-06-16 09:00 32.72 ug/m3 0.3 ug/m3 34.64 ug/m3 20.63 ug/m3 0.36 mg/m3 23.05 C 65.43 % N/A 2.79 m/s 56.22 Deg 35.14 ug/m3 1.7 ug/m3
2021-06-16 08:00 59 ug/m3 0.59 ug/m3 34.46 ug/m3 18.44 ug/m3 0.47 mg/m3 23.41 C 60.58 % N/A 1.43 m/s 186.65 Deg 46.19 ug/m3 1.75 ug/m3
2021-06-16 07:00 64.72 ug/m3 0.39 ug/m3 38.78 ug/m3 28.4 ug/m3 0.42 mg/m3 22.87 C 65.32 % N/A 0.62 m/s 37.15 Deg 36.27 ug/m3 2.12 ug/m3
2021-06-16 06:00 64.32 ug/m3 0.36 ug/m3 35.73 ug/m3 16.35 ug/m3 0.43 mg/m3 21.89 C 69.66 % N/A 0.73 m/s 38.45 Deg 28.38 ug/m3 1.24 ug/m3
2021-06-16 05:00 45.84 ug/m3 0.07 ug/m3 31.15 ug/m3 5.5 ug/m3 0.24 mg/m3 21.53 C 69.56 % N/A 0.33 m/s 130.4 Deg 10.72 ug/m3 0.42 ug/m3
2021-06-16 04:00 36.86 ug/m3 -0.03 ug/m3 19.63 ug/m3 5.95 ug/m3 0.15 mg/m3 21.58 C 69.32 % N/A 0.64 m/s 66.63 Deg 5.15 ug/m3 0.68 ug/m3
2021-06-16 03:00 29.08 ug/m3 -0.08 ug/m3 9.19 ug/m3 7.92 ug/m3 0.08 mg/m3 21.69 C 69.26 % N/A 0.97 m/s 67.98 Deg 3.88 ug/m3 0.49 ug/m3
2021-06-16 02:00 32.09 ug/m3 -0.12 ug/m3 10.89 ug/m3 7.47 ug/m3 0.1 mg/m3 21.92 C 67.37 % N/A 1.19 m/s 73.77 Deg 1.21 ug/m3 0.28 ug/m3
2021-06-16 01:00 31.95 ug/m3 -0.07 ug/m3 17.29 ug/m3 10.99 ug/m3 0.12 mg/m3 22.14 C 65.58 % N/A 1.51 m/s 139.23 Deg 3.99 ug/m3 0.31 ug/m3
2021-06-16 00:00 38.09 ug/m3 -0.04 ug/m3 31.48 ug/m3 9.35 ug/m3 0.17 mg/m3 22.36 C 64.14 % N/A 1.7 m/s 77.87 Deg 6.11 ug/m3 0.26 ug/m3
2021-06-15 23:00 37.06 ug/m3 0.01 ug/m3 29.64 ug/m3 13.24 ug/m3 0.21 mg/m3 22.53 C 65.05 % N/A 1.87 m/s 124.55 Deg 10.52 ug/m3 0.44 ug/m3
2021-06-15 22:00 31.05 ug/m3 0.03 ug/m3 25.8 ug/m3 4.93 ug/m3 0.23 mg/m3 22.65 C 64.36 % N/A 2.53 m/s 75.98 Deg 12.2 ug/m3 0.47 ug/m3
2021-06-15 21:00 26.65 ug/m3 0.12 ug/m3 17.09 ug/m3 5.5 ug/m3 0.22 mg/m3 22.77 C 64.91 % N/A 2.8 m/s 74.73 Deg 13.54 ug/m3 0.66 ug/m3
2021-06-15 20:00 26.13 ug/m3 0.08 ug/m3 18.16 ug/m3 6.56 ug/m3 0.31 mg/m3 23 C 61.01 % N/A 3.59 m/s 64.22 Deg 15.14 ug/m3 0.79 ug/m3
2021-06-15 19:00 24.99 ug/m3 0.06 ug/m3 19.4 ug/m3 10.76 ug/m3 0.25 mg/m3 23.37 C 57.86 % N/A 4.29 m/s 62.6 Deg 17.01 ug/m3 0.44 ug/m3
2021-06-15 18:00 23.31 ug/m3 0.03 ug/m3 26.55 ug/m3 13.36 ug/m3 0.25 mg/m3 23.5 C 59.09 % N/A 4.69 m/s 63.35 Deg 17.47 ug/m3 1.05 ug/m3
2021-06-15 17:00 22.35 ug/m3 0.06 ug/m3 23.36 ug/m3 18.55 ug/m3 0.27 mg/m3 23.41 C 67.06 % N/A 5.13 m/s 59.22 Deg 16.71 ug/m3 0.63 ug/m3
2021-06-15 16:00 12.56 ug/m3 -0.01 ug/m3 15.64 ug/m3 8.81 ug/m3 0.29 mg/m3 23.44 C 69.57 % N/A 5.69 m/s 61.17 Deg 16.1 ug/m3 1.26 ug/m3
2021-06-15 15:00 21.23 ug/m3 0.03 ug/m3 22.8 ug/m3 15.35 ug/m3 0.29 mg/m3 23.58 C 72.47 % N/A 5.63 m/s 56.83 Deg 18.95 ug/m3 1.08 ug/m3
2021-06-15 14:00 24.47 ug/m3 0.02 ug/m3 34.01 ug/m3 6.26 ug/m3 0.27 mg/m3 23.58 C 74.77 % N/A 5.07 m/s 53.77 Deg 16.4 ug/m3 0.68 ug/m3
2021-06-15 13:00 19.84 ug/m3 -0.02 ug/m3 21.02 ug/m3 9.55 ug/m3 0.25 mg/m3 23.39 C 78.31 % N/A 5.99 m/s 49.78 Deg 15.01 ug/m3 1.47 ug/m3
2021-06-15 12:00 26.84 ug/m3 0.03 ug/m3 24.56 ug/m3 15.45 ug/m3 0.3 mg/m3 23.99 C 72.44 % N/A 4.2 m/s 44.93 Deg 20.71 ug/m3 0.52 ug/m3
2021-06-15 11:00 29.27 ug/m3 0.06 ug/m3 21.47 ug/m3 21.17 ug/m3 0.3 mg/m3 24.35 C 68.16 % N/A 2.81 m/s 31.93 Deg 16.88 ug/m3 0.55 ug/m3
2021-06-15 10:00 24.73 ug/m3 0.05 ug/m3 22.18 ug/m3 11.06 ug/m3 0.35 mg/m3 24.51 C 68.75 % N/A 2.44 m/s 25.77 Deg 19.7 ug/m3 0.58 ug/m3
2021-06-15 09:00 29 ug/m3 -0.06 ug/m3 36.02 ug/m3 17.56 ug/m3 0.28 mg/m3 24.35 C 71.32 % N/A 1.91 m/s 249.2 Deg 12.67 ug/m3 0.44 ug/m3
2021-06-15 08:00 33.05 ug/m3 -0.05 ug/m3 39.9 ug/m3 31.45 ug/m3 0.27 mg/m3 23.9 C 75.79 % N/A 2.25 m/s 298.72 Deg 8.75 ug/m3 0.68 ug/m3
2021-06-15 07:00 40.9 ug/m3 -0.04 ug/m3 35.22 ug/m3 17.66 ug/m3 0.32 mg/m3 23.55 C 75.4 % N/A 1.91 m/s 260.45 Deg 8.26 ug/m3 1.03 ug/m3
2021-06-15 06:00 36.97 ug/m3 -0.09 ug/m3 27.16 ug/m3 11.05 ug/m3 0.3 mg/m3 22.68 C 76.5 % N/A 2 m/s 246.67 Deg 6.88 ug/m3 0.81 ug/m3
2021-06-15 05:00 16.54 ug/m3 -0.19 ug/m3 24.81 ug/m3 6.29 ug/m3 0.18 mg/m3 22.15 C 79.33 % N/A 1.03 m/s 237.42 Deg 0.58 ug/m3 0.26 ug/m3
2021-06-15 04:00 6.76 ug/m3 -0.18 ug/m3 19.15 ug/m3 10.59 ug/m3 0.13 mg/m3 22.48 C 75.2 % N/A 1.36 m/s 228.8 Deg -0.36 ug/m3 0.42 ug/m3
2021-06-15 03:00 5.47 ug/m3 -0.2 ug/m3 14.35 ug/m3 11.84 ug/m3 0.1 mg/m3 22.66 C 72.58 % N/A 1.66 m/s 241.57 Deg -0.44 ug/m3 0.7 ug/m3
2021-06-15 02:00 3.09 ug/m3 -0.22 ug/m3 20.22 ug/m3 19.08 ug/m3 0.13 mg/m3 22.73 C 75.59 % N/A 1.29 m/s 236.32 Deg -0.53 ug/m3 0.21 ug/m3
2021-06-15 01:00 4.61 ug/m3 -0.17 ug/m3 31.88 ug/m3 18.41 ug/m3 0.14 mg/m3 22.81 C 72.88 % N/A 1.58 m/s 220.27 Deg -0.48 ug/m3 0.31 ug/m3
2021-06-15 00:00 8.17 ug/m3 -0.19 ug/m3 32.22 ug/m3 11.55 ug/m3 0.16 mg/m3 23.06 C 76.1 % N/A 1.15 m/s 226.78 Deg -0.4 ug/m3 0.37 ug/m3
2021-06-14 23:00 10.54 ug/m3 -0.12 ug/m3 33.1 ug/m3 10.98 ug/m3 0.19 mg/m3 23.58 C 70.22 % N/A 1.11 m/s 234.33 Deg -0.33 ug/m3 0.44 ug/m3
2021-06-14 22:00 14.39 ug/m3 -0.12 ug/m3 24.99 ug/m3 13.9 ug/m3 0.19 mg/m3 23.78 C 69.74 % N/A 1.11 m/s 225.55 Deg -0.19 ug/m3 0.68 ug/m3
2021-06-14 21:00 17.38 ug/m3 -0.14 ug/m3 24.09 ug/m3 8.05 ug/m3 0.22 mg/m3 24.47 C 58.13 % N/A 1.27 m/s 237.25 Deg -0.01 ug/m3 0.71 ug/m3
2021-06-14 20:00 23.1 ug/m3 -0.06 ug/m3 35.47 ug/m3 13.16 ug/m3 0.27 mg/m3 24.78 C 61.7 % N/A 1.52 m/s 195.63 Deg 4.24 ug/m3 1.36 ug/m3
2021-06-14 19:00 23.62 ug/m3 -0.09 ug/m3 33.87 ug/m3 9.05 ug/m3 0.27 mg/m3 25.52 C 61.47 % N/A 1.37 m/s 185.75 Deg 5.53 ug/m3 0.92 ug/m3
2021-06-14 18:00 14.52 ug/m3 -0.03 ug/m3 22.66 ug/m3 12.94 ug/m3 0.21 mg/m3 25.76 C 57.69 % N/A 2.12 m/s 189.52 Deg 1.83 ug/m3 0.91 ug/m3
2021-06-14 17:00 40.63 ug/m3 0.08 ug/m3 15.8 ug/m3 9.17 ug/m3 0.41 mg/m3 26.53 C 47.86 % N/A 2.39 m/s 151.43 Deg 19.28 ug/m3 1.23 ug/m3
2021-06-14 16:00 32.79 ug/m3 0.08 ug/m3 20.02 ug/m3 3.48 ug/m3 0.34 mg/m3 24.93 C 60.76 % N/A 3.38 m/s 51.28 Deg 20.32 ug/m3 1.5 ug/m3
2021-06-14 15:00 32.45 ug/m3 0.14 ug/m3 22.98 ug/m3 4.87 ug/m3 0.32 mg/m3 24.48 C 60.91 % N/A 3.57 m/s 53.15 Deg 23.58 ug/m3 1.07 ug/m3
2021-06-14 14:00 28.76 ug/m3 0.1 ug/m3 37.1 ug/m3 9.74 ug/m3 0.34 mg/m3 24.35 C 65.25 % N/A 2.79 m/s 52.43 Deg 22.36 ug/m3 0.58 ug/m3
2021-06-14 13:00 32.37 ug/m3 0.2 ug/m3 31.63 ug/m3 16.13 ug/m3 0.42 mg/m3 23.57 C 75.64 % N/A 3.17 m/s 52.4 Deg 24.06 ug/m3 1.89 ug/m3
2021-06-14 12:00 20.38 ug/m3 0.03 ug/m3 38.47 ug/m3 29.66 ug/m3 0.3 mg/m3 24.01 C 74.25 % N/A 2.74 m/s 30.12 Deg 17.18 ug/m3 0.7 ug/m3
2021-06-14 11:00 35.75 ug/m3 0.18 ug/m3 44.66 ug/m3 20.09 ug/m3 0.34 mg/m3 25.09 C 65.08 % N/A 2.47 m/s 22 Deg 21.98 ug/m3 0.89 ug/m3
2021-06-14 10:00 32.69 ug/m3 0.07 ug/m3 57.49 ug/m3 34.7 ug/m3 0.31 mg/m3 26.6 C 60.18 % N/A 1.7 m/s 217.88 Deg 15.33 ug/m3 0.87 ug/m3
2021-06-14 09:00 39.61 ug/m3 0.08 ug/m3 54.09 ug/m3 37.95 ug/m3 0.34 mg/m3 25.45 C 66.83 % N/A 1.67 m/s 244.15 Deg 10.93 ug/m3 1.96 ug/m3
2021-06-14 08:00 35.68 ug/m3 0.04 ug/m3 44.74 ug/m3 42.57 ug/m3 0.29 mg/m3 24.19 C 71.53 % N/A 2.22 m/s 241.2 Deg 9.03 ug/m3 1.05 ug/m3
2021-06-14 07:00 44.45 ug/m3 0.05 ug/m3 34.18 ug/m3 30.08 ug/m3 0.34 mg/m3 22.99 C 76.04 % N/A 2.12 m/s 251.37 Deg 9.92 ug/m3 1.1 ug/m3
2021-06-14 06:00 42.58 ug/m3 0.01 ug/m3 21.38 ug/m3 8.3 ug/m3 0.34 mg/m3 22.46 C 78.7 % N/A 1.21 m/s 233.87 Deg 4.9 ug/m3 1.19 ug/m3
2021-06-14 05:00 42.91 ug/m3 -0.01 ug/m3 30.09 ug/m3 2.98 ug/m3 0.25 mg/m3 22.2 C 57.05 % N/A 0.82 m/s 232.4 Deg 2.38 ug/m3 1.78 ug/m3
2021-06-14 04:00 36.01 ug/m3 0.12 ug/m3 13.97 ug/m3 5.97 ug/m3 0.23 mg/m3 22.56 C 52.24 % N/A 0.36 m/s 146.22 Deg 3.79 ug/m3 1.12 ug/m3
2021-06-14 03:00 14.1 ug/m3 -0.12 ug/m3 11.06 ug/m3 7.29 ug/m3 0.11 mg/m3 23.21 C 47.25 % N/A 0.52 m/s 224.17 Deg -0.51 ug/m3 1 ug/m3
2021-06-14 02:00 10.03 ug/m3 -0.13 ug/m3 13.69 ug/m3 8.36 ug/m3 0.15 mg/m3 23.35 C 48.6 % N/A 0.54 m/s 225.96 Deg -0.33 ug/m3 0.58 ug/m3
2021-06-14 01:00 9.05 ug/m3 -0.08 ug/m3 18.87 ug/m3 8.89 ug/m3 0.15 mg/m3 23.63 C 48.22 % N/A 0.56 m/s 173.28 Deg -0.51 ug/m3 0.44 ug/m3
2021-06-14 00:00 13.37 ug/m3 -0.13 ug/m3 31.15 ug/m3 16.23 ug/m3 0.18 mg/m3 23.43 C 54.06 % N/A 1.04 m/s 233.37 Deg 0.04 ug/m3 0.65 ug/m3
2021-06-13 23:00 18.84 ug/m3 -0.2 ug/m3 43.07 ug/m3 24.62 ug/m3 0.23 mg/m3 23.09 C 70.03 % N/A 0.99 m/s 241.28 Deg -0.14 ug/m3 0.61 ug/m3
2021-06-13 22:00 21.44 ug/m3 -0.14 ug/m3 30.58 ug/m3 30.26 ug/m3 0.3 mg/m3 23.08 C 75.5 % N/A 1.1 m/s 280.18 Deg 1.55 ug/m3 0.73 ug/m3
2021-06-13 21:00 23.48 ug/m3 -0.11 ug/m3 40.69 ug/m3 17.62 ug/m3 0.28 mg/m3 23.31 C 73.66 % N/A 1.44 m/s 269.15 Deg 0.56 ug/m3 1.15 ug/m3
2021-06-13 20:00 23.27 ug/m3 -0.08 ug/m3 35.76 ug/m3 19.01 ug/m3 0.27 mg/m3 23.96 C 72.18 % N/A 1.87 m/s 254.03 Deg 0.59 ug/m3 0.68 ug/m3
2021-06-13 19:00 31.89 ug/m3 -0.08 ug/m3 34.01 ug/m3 18.1 ug/m3 0.3 mg/m3 24.72 C 69.59 % N/A 2.19 m/s 205.1 Deg 4.66 ug/m3 0.92 ug/m3
2021-06-13 18:00 36.63 ug/m3 0.01 ug/m3 20.94 ug/m3 14.14 ug/m3 0.41 mg/m3 25.39 C 63.17 % N/A 2.1 m/s 108.23 Deg 11.79 ug/m3 0.81 ug/m3
2021-06-13 17:00 19.18 ug/m3 -0.04 ug/m3 12.82 ug/m3 11.06 ug/m3 0.22 mg/m3 26.52 C 51.13 % N/A 1.63 m/s 254.07 Deg 4.7 ug/m3 0.63 ug/m3
2021-06-13 16:00 20.34 ug/m3 -0.03 ug/m3 19.54 ug/m3 4.06 ug/m3 0.25 mg/m3 25.83 C 53.67 % N/A 2.67 m/s 93.9 Deg 6.58 ug/m3 0.84 ug/m3
2021-06-13 15:00 16.81 ug/m3 -0.05 ug/m3 16.78 ug/m3 3.56 ug/m3 0.28 mg/m3 24.28 C 63.28 % N/A 4.05 m/s 53.42 Deg 5.74 ug/m3 0.79 ug/m3
2021-06-13 14:00 15.56 ug/m3 -0.06 ug/m3 7 ug/m3 3.64 ug/m3 0.27 mg/m3 24.16 C 63.28 % N/A 3.49 m/s 56.62 Deg 8.43 ug/m3 0.68 ug/m3
2021-06-13 13:00 17.68 ug/m3 0.02 ug/m3 5.32 ug/m3 5.21 ug/m3 0.24 mg/m3 23.75 C 63.42 % N/A 3.65 m/s 58.5 Deg 11.58 ug/m3 1.15 ug/m3
2021-06-13 12:00 24.61 ug/m3 0.02 ug/m3 7.74 ug/m3 8.95 ug/m3 0.32 mg/m3 23.5 C 66.6 % N/A 3.31 m/s 61.77 Deg 11.59 ug/m3 1.18 ug/m3
2021-06-13 11:00 23.39 ug/m3 0.01 ug/m3 12.59 ug/m3 15.49 ug/m3 0.34 mg/m3 23.22 C 72.03 % N/A 3.14 m/s 65.8 Deg 14.82 ug/m3 1.6 ug/m3
2021-06-13 10:00 25.23 ug/m3 0.05 ug/m3 22.44 ug/m3 20.23 ug/m3 0.42 mg/m3 22.82 C 75.26 % N/A 2.65 m/s 62.97 Deg 14.83 ug/m3 0.58 ug/m3
2021-06-13 09:00 17.44 ug/m3 -0 ug/m3 38.55 ug/m3 34.16 ug/m3 0.31 mg/m3 22.6 C 77.7 % N/A 2.42 m/s 45.63 Deg 10.6 ug/m3 2.1 ug/m3
2021-06-13 08:00 15.23 ug/m3 -0 ug/m3 37.28 ug/m3 33.7 ug/m3 0.3 mg/m3 22.49 C 78.53 % N/A 2 m/s 34.3 Deg 10.67 ug/m3 0.44 ug/m3
2021-06-13 07:00 17.68 ug/m3 -0.1 ug/m3 40.49 ug/m3 20.16 ug/m3 0.25 mg/m3 22.49 C 77.42 % N/A 0.75 m/s 219.65 Deg 3.6 ug/m3 0.87 ug/m3
2021-06-13 06:00 11.31 ug/m3 -0.13 ug/m3 33.84 ug/m3 6.22 ug/m3 0.18 mg/m3 21.19 C 84.34 % N/A 0.84 m/s 219.08 Deg 0.01 ug/m3 0.34 ug/m3
2021-06-13 05:00 9.33 ug/m3 -0.2 ug/m3 32.57 ug/m3 7.05 ug/m3 0.17 mg/m3 21.19 C 84.58 % N/A 1.13 m/s 245.72 Deg -0.33 ug/m3 0.28 ug/m3
2021-06-13 04:00 6.32 ug/m3 -0.13 ug/m3 24.61 ug/m3 12.03 ug/m3 0.15 mg/m3 21.13 C 84.52 % N/A 0.7 m/s 236.35 Deg -0.46 ug/m3 0.31 ug/m3
2021-06-13 03:00 7.53 ug/m3 -0.15 ug/m3 33.09 ug/m3 4.63 ug/m3 0.12 mg/m3 21.42 C 84.31 % N/A 1.11 m/s 254.5 Deg -0.21 ug/m3 0.28 ug/m3
2021-06-13 02:00 12.62 ug/m3 -0.15 ug/m3 35.26 ug/m3 7.17 ug/m3 0.17 mg/m3 22.08 C 77.16 % N/A 1.04 m/s 258.03 Deg 0.08 ug/m3 0.39 ug/m3
2021-06-13 01:00 15.39 ug/m3 -0.13 ug/m3 39.41 ug/m3 10.23 ug/m3 0.21 mg/m3 22.68 C 70.9 % N/A 1.26 m/s 232.87 Deg -0.34 ug/m3 0.65 ug/m3
2021-06-13 00:00 19.32 ug/m3 -0.13 ug/m3 34.39 ug/m3 15.53 ug/m3 0.24 mg/m3 23.11 C 67.87 % N/A 0.69 m/s 206.96 Deg 0.52 ug/m3 0.7 ug/m3
2021-06-12 23:00 23.89 ug/m3 -0.12 ug/m3 31.02 ug/m3 14.48 ug/m3 0.27 mg/m3 23.59 C 59.46 % N/A 0.88 m/s 228.18 Deg 0.05 ug/m3 1.24 ug/m3
2021-06-12 22:00 27.35 ug/m3 -0.06 ug/m3 30.06 ug/m3 18.83 ug/m3 0.31 mg/m3 23.58 C 62.73 % N/A 1.2 m/s 229.35 Deg 0.75 ug/m3 0.97 ug/m3
2021-06-12 21:00 26.26 ug/m3 -0.13 ug/m3 36.61 ug/m3 30.67 ug/m3 0.3 mg/m3 23.32 C 70.63 % N/A 1.48 m/s 244.9 Deg 0.56 ug/m3 0.92 ug/m3
2021-06-12 20:00 31.62 ug/m3 -0.1 ug/m3 42.11 ug/m3 27.96 ug/m3 0.32 mg/m3 23.28 C 74.37 % N/A 1.91 m/s 272.35 Deg 2.02 ug/m3 1.05 ug/m3
2021-06-12 19:00 26.65 ug/m3 -0.07 ug/m3 37.64 ug/m3 10.44 ug/m3 0.32 mg/m3 24.21 C 70.76 % N/A 2.05 m/s 282 Deg 1.36 ug/m3 0.94 ug/m3
2021-06-12 18:00 30.97 ug/m3 0.04 ug/m3 34.46 ug/m3 15.66 ug/m3 0.37 mg/m3 24.77 C 69.38 % N/A 2.01 m/s 117.88 Deg 13.34 ug/m3 0.98 ug/m3
2021-06-12 17:00 25.44 ug/m3 -0.02 ug/m3 32.62 ug/m3 24.59 ug/m3 0.36 mg/m3 24.46 C 73.76 % N/A 2.52 m/s 40.37 Deg 11.3 ug/m3 0.42 ug/m3
2021-06-12 16:00 16.92 ug/m3 0.02 ug/m3 42.55 ug/m3 13.33 ug/m3 0.28 mg/m3 24.32 C 72.7 % N/A 3.23 m/s 45.05 Deg 9.16 ug/m3 0.76 ug/m3
2021-06-12 15:00 19.48 ug/m3 0.02 ug/m3 39.22 ug/m3 24.54 ug/m3 0.31 mg/m3 23.88 C 74.02 % N/A 3.89 m/s 51.77 Deg 10.39 ug/m3 0.49 ug/m3
2021-06-12 14:00 20.16 ug/m3 0.04 ug/m3 31.59 ug/m3 6.41 ug/m3 0.3 mg/m3 23.71 C 76.53 % N/A 4.39 m/s 125.33 Deg 13.53 ug/m3 0.91 ug/m3
2021-06-12 13:00 21.54 ug/m3 -0.01 ug/m3 15.71 ug/m3 6 ug/m3 0.23 mg/m3 27.68 C 46.54 % N/A 2 m/s 274.83 Deg 6.72 ug/m3 0.6 ug/m3
2021-06-12 12:00 24.13 ug/m3 -0.01 ug/m3 16.66 ug/m3 9.23 ug/m3 0.21 mg/m3 27.85 C 38.62 % N/A 2.07 m/s 256.22 Deg 4.06 ug/m3 0.65 ug/m3
2021-06-12 11:00 29.33 ug/m3 -0.01 ug/m3 18.65 ug/m3 8.84 ug/m3 0.27 mg/m3 26.9 C 50.3 % N/A 1.93 m/s 284.3 Deg 7.13 ug/m3 0.92 ug/m3
2021-06-12 10:00 26.28 ug/m3 -0.05 ug/m3 31.52 ug/m3 12.78 ug/m3 0.25 mg/m3 25.81 C 52.15 % N/A 2.23 m/s 267.93 Deg 4.83 ug/m3 0.73 ug/m3
2021-06-12 09:00 26.83 ug/m3 -0.04 ug/m3 39.26 ug/m3 22.08 ug/m3 0.27 mg/m3 24.43 C 62.12 % N/A 2.53 m/s 249.93 Deg 4.57 ug/m3 0.79 ug/m3
2021-06-12 08:00 27.35 ug/m3 -0.06 ug/m3 46.65 ug/m3 28.49 ug/m3 0.26 mg/m3 22.96 C 72.8 % N/A 2.25 m/s 261.7 Deg 4.49 ug/m3 0.52 ug/m3
2021-06-12 07:00 25.28 ug/m3 -0.06 ug/m3 37.35 ug/m3 30.17 ug/m3 0.23 mg/m3 21.77 C 79.14 % N/A 2.49 m/s 245.38 Deg 3.17 ug/m3 0.73 ug/m3
2021-06-12 06:00 20.51 ug/m3 -0.09 ug/m3 33.71 ug/m3 26.9 ug/m3 0.21 mg/m3 20.87 C 83.7 % N/A 1.92 m/s 230.68 Deg 1.46 ug/m3 0.5 ug/m3
2021-06-12 05:00 17.13 ug/m3 -0.09 ug/m3 38.22 ug/m3 20.44 ug/m3 0.18 mg/m3 20.69 C 83.42 % N/A 1.14 m/s 253.38 Deg 0.49 ug/m3 0.39 ug/m3
2021-06-12 04:00 9.37 ug/m3 -0.12 ug/m3 30.96 ug/m3 24.61 ug/m3 0.16 mg/m3 20.68 C 82.34 % N/A 1.11 m/s 244.47 Deg -0.24 ug/m3 0.52 ug/m3
2021-06-12 03:00 12.08 ug/m3 -0.08 ug/m3 27.47 ug/m3 15.51 ug/m3 0.12 mg/m3 21.3 C 74.62 % N/A 1.05 m/s 228.37 Deg -0.24 ug/m3 0.58 ug/m3
2021-06-12 02:00 11.68 ug/m3 -0.13 ug/m3 31.6 ug/m3 27.81 ug/m3 0.17 mg/m3 21.42 C 75.45 % N/A 0.99 m/s 237.53 Deg -0.38 ug/m3 0.47 ug/m3
2021-06-12 01:00 18.06 ug/m3 -0.13 ug/m3 49.17 ug/m3 26.67 ug/m3 0.21 mg/m3 21.79 C 75.19 % N/A 1.2 m/s 230.12 Deg -0.18 ug/m3 1.03 ug/m3
2021-06-12 00:00 26.55 ug/m3 -0.11 ug/m3 49.54 ug/m3 12.04 ug/m3 0.27 mg/m3 22.27 C 75.86 % N/A 0.68 m/s 229.8 Deg 0.21 ug/m3 0.66 ug/m3
2021-06-11 23:00 24.5 ug/m3 -0.07 ug/m3 42.82 ug/m3 22.54 ug/m3 0.25 mg/m3 22.36 C 75.67 % N/A 1.06 m/s 264.15 Deg 0.36 ug/m3 0.7 ug/m3
2021-06-11 22:00 24.93 ug/m3 -0.07 ug/m3 41.48 ug/m3 25.64 ug/m3 0.31 mg/m3 22.81 C 70.11 % N/A 0.96 m/s 278.43 Deg 2.53 ug/m3 1.49 ug/m3
2021-06-11 21:00 27.69 ug/m3 -0.08 ug/m3 33.54 ug/m3 19.54 ug/m3 0.27 mg/m3 22.64 C 70.83 % N/A 1.06 m/s 266.25 Deg 1.3 ug/m3 0.91 ug/m3
2021-06-11 20:00 32.03 ug/m3 -0.01 ug/m3 43.16 ug/m3 14.6 ug/m3 0.33 mg/m3 22.84 C 74.13 % N/A 1.45 m/s 302.75 Deg 5.94 ug/m3 1.21 ug/m3
2021-06-11 19:00 28.45 ug/m3 -0.07 ug/m3 39.84 ug/m3 20.02 ug/m3 0.29 mg/m3 23.74 C 69.72 % N/A 1.7 m/s 314.27 Deg 3.8 ug/m3 0.81 ug/m3
2021-06-11 18:00 39.09 ug/m3 0.13 ug/m3 29.53 ug/m3 20.24 ug/m3 0.41 mg/m3 24.56 C 65.4 % N/A 2.1 m/s 31.83 Deg 15.64 ug/m3 1.1 ug/m3
2021-06-11 17:00 38.01 ug/m3 0.17 ug/m3 29.36 ug/m3 23.36 ug/m3 0.4 mg/m3 24.2 C 64.82 % N/A 2.95 m/s 46.77 Deg 16.21 ug/m3 0.65 ug/m3
2021-06-11 16:00 39.08 ug/m3 0.22 ug/m3 35.29 ug/m3 26.17 ug/m3 0.41 mg/m3 24.16 C 63.74 % N/A 3.24 m/s 53.18 Deg 21.49 ug/m3 1.42 ug/m3
2021-06-11 15:00 29.15 ug/m3 0.13 ug/m3 25.94 ug/m3 8.75 ug/m3 0.34 mg/m3 23.89 C 61.48 % N/A 3.63 m/s 60.68 Deg 20.23 ug/m3 1.21 ug/m3
2021-06-11 14:00 35.53 ug/m3 0.22 ug/m3 20.9 ug/m3 9.67 ug/m3 0.3 mg/m3 23.74 C 60.66 % N/A 3.46 m/s 57.53 Deg 25.43 ug/m3 0.76 ug/m3
2021-06-11 13:00 38.49 ug/m3 0.2 ug/m3 27.85 ug/m3 10.27 ug/m3 0.33 mg/m3 23.75 C 63.4 % N/A 3.5 m/s 49.15 Deg 23.07 ug/m3 1.1 ug/m3
2021-06-11 12:00 40.39 ug/m3 0.23 ug/m3 21.75 ug/m3 17.09 ug/m3 0.39 mg/m3 24.24 C 58.81 % N/A 3.35 m/s 40.83 Deg 27.62 ug/m3 1.08 ug/m3
2021-06-11 11:00 36.03 ug/m3 0.28 ug/m3 20.33 ug/m3 24.19 ug/m3 0.44 mg/m3 25.27 C 48.86 % N/A 2.34 m/s 27.68 Deg 27.55 ug/m3 1.63 ug/m3
2021-06-11 10:00 39.95 ug/m3 0.19 ug/m3 32.02 ug/m3 16.74 ug/m3 0.29 mg/m3 25.22 C 51.95 % N/A 1.71 m/s 257.18 Deg 17.57 ug/m3 1.68 ug/m3
2021-06-11 09:00 42.33 ug/m3 0.24 ug/m3 34.09 ug/m3 20.89 ug/m3 0.34 mg/m3 24.74 C 56.63 % N/A 1.36 m/s 98.02 Deg 20.81 ug/m3 1.97 ug/m3
2021-06-11 08:00 38.19 ug/m3 0.14 ug/m3 46.76 ug/m3 21.04 ug/m3 0.33 mg/m3 23.62 C 60.69 % N/A 1.49 m/s 176.25 Deg 17.37 ug/m3 1.63 ug/m3
2021-06-11 07:00 60.48 ug/m3 0.16 ug/m3 41.42 ug/m3 27.96 ug/m3 0.41 mg/m3 23.11 C 64.76 % N/A 0.78 m/s 269.92 Deg 15.98 ug/m3 1.92 ug/m3
2021-06-11 06:00 55.09 ug/m3 0.13 ug/m3 31.15 ug/m3 19.76 ug/m3 0.4 mg/m3 21.78 C 73.59 % N/A 0.84 m/s 236.75 Deg 13.72 ug/m3 1.19 ug/m3
2021-06-11 05:00 22.42 ug/m3 -0.07 ug/m3 23.98 ug/m3 7.42 ug/m3 0.22 mg/m3 21.08 C 77.76 % N/A 0.96 m/s 220.75 Deg 1.28 ug/m3 0.42 ug/m3
2021-06-11 04:00 8.59 ug/m3 -0.07 ug/m3 20.88 ug/m3 4.2 ug/m3 0.15 mg/m3 21.08 C 81.35 % N/A 1 m/s 225.12 Deg -0.38 ug/m3 0.52 ug/m3
2021-06-11 03:00 6.84 ug/m3 -0.12 ug/m3 24.57 ug/m3 8.41 ug/m3 0.11 mg/m3 21.55 C 77.4 % N/A 0.9 m/s 221.73 Deg -0.5 ug/m3 0.44 ug/m3
2021-06-11 02:00 7.52 ug/m3 -0.06 ug/m3 17.21 ug/m3 13.91 ug/m3 0.13 mg/m3 21.92 C 73.45 % N/A 0.78 m/s 223.2 Deg -0.52 ug/m3 0.44 ug/m3
2021-06-11 01:00 15.81 ug/m3 -0.13 ug/m3 18.03 ug/m3 7.19 ug/m3 0.18 mg/m3 22.55 C 60.84 % N/A 0.92 m/s 246.6 Deg -0.39 ug/m3 0.65 ug/m3
2021-06-11 00:00 24.13 ug/m3 -0.07 ug/m3 26.15 ug/m3 10.21 ug/m3 0.23 mg/m3 22.98 C 60.48 % N/A 0.85 m/s 234.23 Deg -0.09 ug/m3 0.73 ug/m3
2021-06-10 23:00 21.41 ug/m3 -0.07 ug/m3 21.53 ug/m3 15.24 ug/m3 0.21 mg/m3 23.11 C 61.28 % N/A 0.88 m/s 236.12 Deg -0.33 ug/m3 0.52 ug/m3
2021-06-10 22:00 24.86 ug/m3 -0.09 ug/m3 27.7 ug/m3 22.41 ug/m3 0.24 mg/m3 22.89 C 64.52 % N/A 0.83 m/s 255.1 Deg 0.53 ug/m3 0.73 ug/m3
2021-06-10 21:00 28.2 ug/m3 -0.05 ug/m3 22.89 ug/m3 6.21 ug/m3 0.24 mg/m3 22.6 C 72.18 % N/A 1.25 m/s 290.55 Deg 2.37 ug/m3 0.56 ug/m3
2021-06-10 20:00 24.66 ug/m3 -0.06 ug/m3 28.92 ug/m3 9.81 ug/m3 0.26 mg/m3 22.69 C 71.93 % N/A 1.53 m/s 319.92 Deg 5.29 ug/m3 0.73 ug/m3
2021-06-10 19:00 27.93 ug/m3 0.03 ug/m3 29.23 ug/m3 17.34 ug/m3 0.27 mg/m3 23.24 C 66.75 % N/A 1.59 m/s 312.95 Deg 6.08 ug/m3 0.65 ug/m3
2021-06-10 18:00 24.59 ug/m3 -0.01 ug/m3 29.84 ug/m3 12.07 ug/m3 0.24 mg/m3 23.46 C 67.2 % N/A 2.2 m/s 316.9 Deg 5.39 ug/m3 0.49 ug/m3
2021-06-10 17:00 22.78 ug/m3 0.04 ug/m3 23.01 ug/m3 11.76 ug/m3 0.26 mg/m3 24.27 C 62.23 % N/A 2.29 m/s 324.8 Deg 7.51 ug/m3 0.52 ug/m3
2021-06-10 16:00 29.61 ug/m3 0.16 ug/m3 18.67 ug/m3 14.5 ug/m3 0.31 mg/m3 25.34 C 55.92 % N/A 2.26 m/s 187.62 Deg 18.39 ug/m3 0.65 ug/m3
2021-06-10 15:00 25.42 ug/m3 0.15 ug/m3 25.3 ug/m3 2.24 ug/m3 0.31 mg/m3 24.65 C 55.05 % N/A 2.38 m/s 48.47 Deg 23.2 ug/m3 1.26 ug/m3
2021-06-10 14:00 24.98 ug/m3 0.18 ug/m3 22.71 ug/m3 4.49 ug/m3 0.28 mg/m3 24.37 C 55.87 % N/A 2.77 m/s 36.13 Deg 23.75 ug/m3 1.05 ug/m3
2021-06-10 13:00 42.89 ug/m3 0.3 ug/m3 15.72 ug/m3 6.98 ug/m3 0.45 mg/m3 24.7 C 53.68 % N/A 2.83 m/s 45.12 Deg 29.88 ug/m3 3.41 ug/m3
2021-06-10 12:00 40 ug/m3 0.27 ug/m3 17.77 ug/m3 10.99 ug/m3 0.48 mg/m3 24.51 C 55.91 % N/A 2.14 m/s 46.93 Deg 29.41 ug/m3 1.05 ug/m3
2021-06-10 11:00 30.14 ug/m3 0.17 ug/m3 20.76 ug/m3 10.69 ug/m3 0.3 mg/m3 24.3 C 60.51 % N/A 2.16 m/s 256.75 Deg 22.94 ug/m3 1.1 ug/m3
2021-06-10 10:00 32.83 ug/m3 0.12 ug/m3 21.09 ug/m3 21.39 ug/m3 0.29 mg/m3 24.03 C 64.8 % N/A 1.93 m/s 261.78 Deg 20.55 ug/m3 0.7 ug/m3
2021-06-10 09:00 36.64 ug/m3 0.06 ug/m3 32.16 ug/m3 25.95 ug/m3 0.3 mg/m3 23.72 C 64.06 % N/A 1.48 m/s 301.65 Deg 15.1 ug/m3 0.82 ug/m3
2021-06-10 08:00 45.75 ug/m3 0.1 ug/m3 39.05 ug/m3 27.15 ug/m3 0.29 mg/m3 22.69 C 70.86 % N/A 1.74 m/s 301.25 Deg 19.57 ug/m3 0.68 ug/m3
2021-06-10 07:00 39.1 ug/m3 -0.02 ug/m3 26.98 ug/m3 13.86 ug/m3 0.27 mg/m3 21.82 C 75.99 % N/A 2.13 m/s 302.92 Deg 11.12 ug/m3 1.21 ug/m3
2021-06-10 06:00 37.18 ug/m3 -0.05 ug/m3 27.51 ug/m3 4.26 ug/m3 0.3 mg/m3 21.25 C 79.43 % N/A 1.58 m/s 291.37 Deg 7.11 ug/m3 0.55 ug/m3
2021-06-10 05:00 18.92 ug/m3 -0.16 ug/m3 31.86 ug/m3 7.47 ug/m3 0.17 mg/m3 20.8 C 81.34 % N/A 1.68 m/s 290.67 Deg 0.97 ug/m3 0.31 ug/m3
2021-06-10 04:00 11.17 ug/m3 -0.13 ug/m3 26.94 ug/m3 6.44 ug/m3 0.14 mg/m3 20.89 C 81.79 % N/A 2.01 m/s 284.08 Deg -0.24 ug/m3 0.23 ug/m3
2021-06-10 03:00 8.74 ug/m3 -0.15 ug/m3 37.24 ug/m3 6.6 ug/m3 0.12 mg/m3 21.18 C 80.86 % N/A 2.28 m/s 285.48 Deg -0.34 ug/m3 1.19 ug/m3
2021-06-10 02:00 6.38 ug/m3 -0.16 ug/m3 23.46 ug/m3 6.01 ug/m3 0.13 mg/m3 21.43 C 78.9 % N/A 2.18 m/s 277.68 Deg -0.48 ug/m3 0.23 ug/m3
2021-06-10 01:00 8.64 ug/m3 -0.13 ug/m3 29.08 ug/m3 8.16 ug/m3 0.14 mg/m3 21.5 C 75.92 % N/A 2 m/s 268.33 Deg 0.07 ug/m3 0.23 ug/m3
2021-06-10 00:00 7.07 ug/m3 -0.12 ug/m3 39.52 ug/m3 14.48 ug/m3 0.15 mg/m3 21.26 C 80.29 % N/A 2.83 m/s 253.13 Deg 0 ug/m3 0.63 ug/m3
2021-06-09 23:00 10.3 ug/m3 -0.1 ug/m3 35.62 ug/m3 21.27 ug/m3 0.16 mg/m3 21.26 C 80.83 % N/A 3.32 m/s 253.9 Deg 0.44 ug/m3 0.47 ug/m3
2021-06-09 22:00 9.71 ug/m3 -0.05 ug/m3 35.45 ug/m3 12.27 ug/m3 0.18 mg/m3 21.58 C 75.27 % N/A 3.05 m/s 250.22 Deg 0.31 ug/m3 0.42 ug/m3
2021-06-09 21:00 15.1 ug/m3 -0.08 ug/m3 46.67 ug/m3 20.22 ug/m3 0.2 mg/m3 21.7 C 71.25 % N/A 2.45 m/s 247.12 Deg 0.86 ug/m3 0.87 ug/m3
2021-06-09 20:00 20.38 ug/m3 -0.03 ug/m3 42.88 ug/m3 13.99 ug/m3 0.25 mg/m3 21.98 C 70.69 % N/A 2.41 m/s 257.3 Deg 1.5 ug/m3 0.86 ug/m3
2021-06-09 19:00 22.9 ug/m3 -0.02 ug/m3 38.45 ug/m3 22.39 ug/m3 0.24 mg/m3 22.79 C 68.32 % N/A 2.5 m/s 262.42 Deg 2.2 ug/m3 0.73 ug/m3
2021-06-09 18:00 21.45 ug/m3 -0.03 ug/m3 35 ug/m3 6.7 ug/m3 0.27 mg/m3 23.33 C 66.8 % N/A 3.15 m/s 264.3 Deg 4.18 ug/m3 0.65 ug/m3
2021-06-09 17:00 16.99 ug/m3 0.02 ug/m3 50.21 ug/m3 7.48 ug/m3 0.23 mg/m3 23.65 C 64.74 % N/A 3.79 m/s 257.85 Deg 4.33 ug/m3 0.5 ug/m3
2021-06-09 16:00 20.01 ug/m3 0.02 ug/m3 48.01 ug/m3 11.97 ug/m3 0.22 mg/m3 24.31 C 60.98 % N/A 3.58 m/s 253.08 Deg 5.16 ug/m3 0.55 ug/m3
2021-06-09 15:00 23.7 ug/m3 0.03 ug/m3 40.66 ug/m3 16.35 ug/m3 0.22 mg/m3 24.59 C 57.77 % N/A 3.7 m/s 249.05 Deg 7.44 ug/m3 0.49 ug/m3
2021-06-09 14:00 17.44 ug/m3 0.01 ug/m3 32.85 ug/m3 8.51 ug/m3 0.2 mg/m3 24.61 C 59.14 % N/A 3.55 m/s 249.7 Deg 4.91 ug/m3 0.47 ug/m3
2021-06-09 13:00 25.6 ug/m3 0.06 ug/m3 29.15 ug/m3 12 ug/m3 0.22 mg/m3 24.77 C 58.39 % N/A 2.98 m/s 257.18 Deg 8.38 ug/m3 0.87 ug/m3
2021-06-09 12:00 28.12 ug/m3 0.03 ug/m3 19.56 ug/m3 12.1 ug/m3 0.25 mg/m3 24.93 C 55.11 % N/A 2.45 m/s 289.45 Deg 11.76 ug/m3 0.7 ug/m3
2021-06-09 11:00 25.02 ug/m3 0.06 ug/m3 17.12 ug/m3 14.55 ug/m3 0.23 mg/m3 24.44 C 52.26 % N/A 2.86 m/s 291.67 Deg 8.9 ug/m3 0.86 ug/m3
2021-06-09 10:00 26.08 ug/m3 0.05 ug/m3 24.62 ug/m3 27.66 ug/m3 0.24 mg/m3 23.5 C 60.45 % N/A 3.07 m/s 281.37 Deg 7.7 ug/m3 0.94 ug/m3
2021-06-09 09:00 31.23 ug/m3 0.06 ug/m3 45.09 ug/m3 30.9 ug/m3 0.26 mg/m3 22.69 C 66.53 % N/A 2.87 m/s 285.63 Deg 9.19 ug/m3 1.23 ug/m3
2021-06-09 08:00 37.85 ug/m3 0.13 ug/m3 35.25 ug/m3 21.81 ug/m3 0.29 mg/m3 21.97 C 71.82 % N/A 2.85 m/s 262.32 Deg 12.27 ug/m3 0.81 ug/m3
2021-06-09 07:00 41.48 ug/m3 0.05 ug/m3 39.71 ug/m3 18.38 ug/m3 0.31 mg/m3 21.24 C 76.74 % N/A 2.97 m/s 265.38 Deg 12.5 ug/m3 1.18 ug/m3
2021-06-09 06:00 44.28 ug/m3 0.07 ug/m3 25.24 ug/m3 8.72 ug/m3 0.37 mg/m3 20.55 C 79.33 % N/A 1.92 m/s 267.42 Deg 13.76 ug/m3 1.39 ug/m3
2021-06-09 05:00 25.71 ug/m3 -0.09 ug/m3 19.8 ug/m3 10.74 ug/m3 0.21 mg/m3 20.44 C 77.86 % N/A 1.81 m/s 271.63 Deg 2.88 ug/m3 0.28 ug/m3
2021-06-09 04:00 11.36 ug/m3 -0.14 ug/m3 9.18 ug/m3 18.67 ug/m3 0.13 mg/m3 20.52 C 77.48 % N/A 1.8 m/s 265.28 Deg -0.05 ug/m3 0.23 ug/m3
2021-06-09 03:00 8.44 ug/m3 -0.1 ug/m3 7.39 ug/m3 7.85 ug/m3 0.1 mg/m3 20.82 C 74.93 % N/A 1.85 m/s 269.28 Deg -0.23 ug/m3 0.26 ug/m3
2021-06-09 02:00 6.13 ug/m3 -0.13 ug/m3 7.42 ug/m3 9.08 ug/m3 0.14 mg/m3 21.1 C 74.32 % N/A 2.07 m/s 269.27 Deg -0.44 ug/m3 0.18 ug/m3
2021-06-09 01:00 5.73 ug/m3 -0.13 ug/m3 1.81 ug/m3 16.08 ug/m3 0.14 mg/m3 21.08 C 77.61 % N/A 2.27 m/s 273.08 Deg -0.35 ug/m3 0.21 ug/m3
2021-06-09 00:00 10.06 ug/m3 -0.13 ug/m3 0 ug/m3 11.5 ug/m3 0.16 mg/m3 21.17 C 75.11 % N/A 2.9 m/s 268.45 Deg 0.31 ug/m3 0.37 ug/m3
2021-06-08 23:00 10.75 ug/m3 -0.07 ug/m3 0 ug/m3 13.24 ug/m3 0.18 mg/m3 21.37 C 74.47 % N/A 2.65 m/s 263.72 Deg 0.27 ug/m3 0.39 ug/m3
2021-06-08 22:00 15.23 ug/m3 -0.08 ug/m3 0 ug/m3 16.51 ug/m3 0.2 mg/m3 21.82 C 70.82 % N/A 2.47 m/s 261.82 Deg 1.48 ug/m3 0.39 ug/m3
2021-06-08 21:00 14.35 ug/m3 -0.08 ug/m3 0 ug/m3 12.35 ug/m3 0.22 mg/m3 21.75 C 73.15 % N/A 3.22 m/s 260.68 Deg 1.35 ug/m3 0.47 ug/m3
2021-06-08 20:00 15.98 ug/m3 -0.07 ug/m3 0 ug/m3 13.27 ug/m3 0.21 mg/m3 21.93 C 73.51 % N/A 3.43 m/s 255.9 Deg 1.46 ug/m3 0.55 ug/m3
2021-06-08 19:00 22.08 ug/m3 -0.07 ug/m3 0 ug/m3 9.45 ug/m3 0.26 mg/m3 23.24 C 63.78 % N/A 2.88 m/s 257.25 Deg 2.86 ug/m3 0.91 ug/m3
2021-06-08 18:00 19.34 ug/m3 -0.05 ug/m3 0 ug/m3 13.43 ug/m3 0.24 mg/m3 23.49 C 65.29 % N/A 3.14 m/s 256.75 Deg 3.48 ug/m3 0.58 ug/m3
2021-06-08 17:00 21.55 ug/m3 -0.08 ug/m3 0 ug/m3 9.23 ug/m3 0.23 mg/m3 23.7 C 63.48 % N/A 3.51 m/s 257.82 Deg 4.06 ug/m3 0.52 ug/m3
2021-06-08 16:00 19.25 ug/m3 -0.09 ug/m3 0 ug/m3 5.17 ug/m3 0.24 mg/m3 24.06 C 57.55 % N/A 4.12 m/s 260.93 Deg 4.33 ug/m3 0.55 ug/m3
2021-06-08 15:00 21.49 ug/m3 -0.07 ug/m3 0 ug/m3 3.41 ug/m3 0.23 mg/m3 24.49 C 54.81 % N/A 3.93 m/s 256.98 Deg 5.32 ug/m3 0.47 ug/m3
2021-06-08 14:00 21.21 ug/m3 -0.06 ug/m3 0 ug/m3 6.82 ug/m3 0.21 mg/m3 24.67 C 56.38 % N/A 3.9 m/s 261.43 Deg 4.55 ug/m3 0.52 ug/m3
2021-06-08 13:00 26.11 ug/m3 -0.03 ug/m3 0 ug/m3 11.77 ug/m3 0.24 mg/m3 25.08 C 59.28 % N/A 3.09 m/s 278.07 Deg 7.49 ug/m3 1.73 ug/m3
2021-06-08 12:00 19.82 ug/m3 0.26 ug/m3 0 ug/m3 17.39 ug/m3 0.24 mg/m3 24.62 C 56.01 % N/A 3.1 m/s 311.02 Deg 11.66 ug/m3 0.55 ug/m3
2021-06-08 11:00 25.29 ug/m3 0.31 ug/m3 0 ug/m3 30.33 ug/m3 0.26 mg/m3 24.12 C 61.18 % N/A 2.57 m/s 241.42 Deg 13.02 ug/m3 0.73 ug/m3
2021-06-08 10:00 30.53 ug/m3 0.08 ug/m3 0 ug/m3 16.32 ug/m3 0.34 mg/m3 24.16 C 64.29 % N/A 2.02 m/s 321.18 Deg 16.76 ug/m3 0.6 ug/m3
2021-06-08 09:00 35.33 ug/m3 0.02 ug/m3 15.51 ug/m3 18.89 ug/m3 0.29 mg/m3 23.76 C 64.23 % N/A 2.05 m/s 288.57 Deg 13.06 ug/m3 1 ug/m3
2021-06-08 08:00 39.54 ug/m3 0.03 ug/m3 47.92 ug/m3 16.53 ug/m3 0.31 mg/m3 23.22 C 62.61 % N/A 2.02 m/s 271.62 Deg 11.57 ug/m3 0.81 ug/m3
2021-06-08 07:00 43.06 ug/m3 0.05 ug/m3 39.55 ug/m3 28.02 ug/m3 0.32 mg/m3 21.91 C 73.88 % N/A 1.63 m/s 246.52 Deg 14.39 ug/m3 0.84 ug/m3
2021-06-08 06:00 38.71 ug/m3 0.02 ug/m3 33.67 ug/m3 13.05 ug/m3 0.31 mg/m3 20.96 C 80.14 % N/A 1.71 m/s 266.1 Deg 9.49 ug/m3 1.05 ug/m3
2021-06-08 05:00 21.86 ug/m3 -0.12 ug/m3 29.83 ug/m3 19.75 ug/m3 0.19 mg/m3 20.56 C 83.01 % N/A 1.45 m/s 254.1 Deg 1.44 ug/m3 0.26 ug/m3
2021-06-08 04:00 9.81 ug/m3 -0.07 ug/m3 34.16 ug/m3 8.69 ug/m3 0.13 mg/m3 20.88 C 83.71 % N/A 1.52 m/s 263.67 Deg 0.09 ug/m3 0.21 ug/m3
2021-06-08 03:00 6.46 ug/m3 -0.11 ug/m3 27.97 ug/m3 12.92 ug/m3 0.08 mg/m3 21.12 C 81.93 % N/A 1.83 m/s 274.53 Deg -0.46 ug/m3 0.21 ug/m3
2021-06-08 02:00 5.65 ug/m3 -0.14 ug/m3 18.9 ug/m3 16.18 ug/m3 0.11 mg/m3 21.44 C 78.83 % N/A 2.28 m/s 281.92 Deg -0.16 ug/m3 0.23 ug/m3
2021-06-08 01:00 6.52 ug/m3 -0.18 ug/m3 26.36 ug/m3 21.25 ug/m3 0.12 mg/m3 21.66 C 76.52 % N/A 2.26 m/s 275.13 Deg -0.37 ug/m3 3.23 ug/m3
2021-06-08 00:00 10.31 ug/m3 -0.12 ug/m3 45.74 ug/m3 8.89 ug/m3 0.14 mg/m3 21.71 C 77.16 % N/A 2.72 m/s 270.47 Deg 0.2 ug/m3 0.37 ug/m3
2021-06-07 23:00 8.78 ug/m3 -0.12 ug/m3 46.52 ug/m3 10.9 ug/m3 0.15 mg/m3 21.68 C 79.63 % N/A 3.1 m/s 261.55 Deg 0.07 ug/m3 0.34 ug/m3
2021-06-07 22:00 10.82 ug/m3 -0.14 ug/m3 51.78 ug/m3 15.06 ug/m3 0.16 mg/m3 21.68 C 80.34 % N/A 3.2 m/s 254.48 Deg 0.51 ug/m3 0.39 ug/m3
2021-06-07 21:00 11.19 ug/m3 -0.11 ug/m3 42.01 ug/m3 23.75 ug/m3 0.17 mg/m3 21.83 C 80 % N/A 3.72 m/s 254.87 Deg 0.78 ug/m3 0.49 ug/m3
2021-06-07 20:00 13.9 ug/m3 -0.06 ug/m3 43.27 ug/m3 9.82 ug/m3 0.2 mg/m3 22.25 C 77.46 % N/A 3.65 m/s 255.95 Deg 1.45 ug/m3 0.49 ug/m3
2021-06-07 19:00 12.97 ug/m3 -0.04 ug/m3 39.92 ug/m3 15.65 ug/m3 0.2 mg/m3 23.2 C 73.59 % N/A 3.41 m/s 256.73 Deg 1.53 ug/m3 0.65 ug/m3
2021-06-07 18:00 15.42 ug/m3 -0.08 ug/m3 41.2 ug/m3 20.57 ug/m3 0.2 mg/m3 24.77 C 67.08 % N/A 3.23 m/s 258.55 Deg 1.81 ug/m3 0.42 ug/m3
2021-06-07 17:00 14.18 ug/m3 -0.07 ug/m3 38.41 ug/m3 15.91 ug/m3 0.19 mg/m3 25.69 C 62.68 % N/A 2.84 m/s 269.8 Deg 1.98 ug/m3 0.37 ug/m3
2021-06-07 16:00 12.54 ug/m3 -0.09 ug/m3 18.24 ug/m3 17.17 ug/m3 0.17 mg/m3 25.51 C 62.52 % N/A 2.49 m/s 293.73 Deg 1.5 ug/m3 0.37 ug/m3
2021-06-07 15:00 13.94 ug/m3 -0.03 ug/m3 17.35 ug/m3 6.38 ug/m3 0.18 mg/m3 25.12 C 61.1 % N/A 2.55 m/s 313.52 Deg 3.49 ug/m3 0.39 ug/m3
2021-06-07 14:00 11.59 ug/m3 -0.1 ug/m3 31.75 ug/m3 7.74 ug/m3 0.17 mg/m3 24.07 C 68.74 % N/A 2.9 m/s 308.48 Deg 1.51 ug/m3 0.37 ug/m3
2021-06-07 13:00 12.98 ug/m3 -0.11 ug/m3 30.04 ug/m3 10.86 ug/m3 0.2 mg/m3 24.02 C 73 % N/A 3.03 m/s 315.93 Deg 2.48 ug/m3 0.39 ug/m3
2021-06-07 12:00 15.64 ug/m3 0 ug/m3 16.73 ug/m3 8.34 ug/m3 0.21 mg/m3 25.33 C 61.31 % N/A 2.82 m/s 264.12 Deg 7.45 ug/m3 0.65 ug/m3
2021-06-07 11:00 18.87 ug/m3 -0.02 ug/m3 15.66 ug/m3 9.36 ug/m3 0.26 mg/m3 25.74 C 59.3 % N/A 2.29 m/s 130.78 Deg 8.41 ug/m3 0.47 ug/m3
2021-06-07 10:00 20.28 ug/m3 0.02 ug/m3 25.53 ug/m3 11.51 ug/m3 0.25 mg/m3 25.67 C 57.39 % N/A 2.09 m/s 202.95 Deg 7.85 ug/m3 0.84 ug/m3
2021-06-07 09:00 27.55 ug/m3 0.06 ug/m3 26.8 ug/m3 19.48 ug/m3 0.27 mg/m3 24.88 C 61.14 % N/A 2 m/s 201.55 Deg 11.73 ug/m3 0.94 ug/m3
2021-06-07 08:00 27.61 ug/m3 0.07 ug/m3 34.16 ug/m3 16.47 ug/m3 0.28 mg/m3 23.4 C 73.4 % N/A 2.27 m/s 123.1 Deg 12.83 ug/m3 0.58 ug/m3
2021-06-07 07:00 49.32 ug/m3 0.14 ug/m3 24.84 ug/m3 28.46 ug/m3 0.26 mg/m3 21.94 C 84.62 % N/A 1.68 m/s 50.05 Deg 16.96 ug/m3 0.84 ug/m3
2021-06-07 06:00 43.09 ug/m3 0.27 ug/m3 19.71 ug/m3 8.66 ug/m3 0.34 mg/m3 21.16 C 89.29 % N/A 1.24 m/s 54.12 Deg 13.78 ug/m3 8.24 ug/m3
2021-06-07 05:00 23.11 ug/m3 0.16 ug/m3 25.85 ug/m3 9.16 ug/m3 0.38 mg/m3 21.15 C 89.17 % N/A 0.99 m/s 56.1 Deg 3.21 ug/m3 0.89 ug/m3
2021-06-07 04:00 16.03 ug/m3 -0.07 ug/m3 29.03 ug/m3 12.05 ug/m3 0.16 mg/m3 21.23 C 88.04 % N/A 0.87 m/s 54.87 Deg 1.53 ug/m3 0.63 ug/m3
2021-06-07 03:00 26.78 ug/m3 -0.04 ug/m3 22.48 ug/m3 17.1 ug/m3 0.11 mg/m3 21.34 C 85.54 % N/A 1.04 m/s 49.87 Deg 3.55 ug/m3 0.37 ug/m3
2021-06-07 02:00 39.78 ug/m3 -0.04 ug/m3 33.86 ug/m3 9.41 ug/m3 0.15 mg/m3 21.27 C 85.31 % N/A 1.32 m/s 57.62 Deg 2.04 ug/m3 0.31 ug/m3
2021-06-07 01:00 28.74 ug/m3 -0.03 ug/m3 37.84 ug/m3 15.37 ug/m3 0.18 mg/m3 21.28 C 86.3 % N/A 1.96 m/s 58.32 Deg 3.06 ug/m3 0.63 ug/m3
2021-06-07 00:00 36.26 ug/m3 0.1 ug/m3 47.49 ug/m3 14 ug/m3 0.26 mg/m3 21.4 C 86.14 % N/A 1.95 m/s 53.88 Deg 8.78 ug/m3 0.65 ug/m3
2021-06-06 23:00 22 ug/m3 0.14 ug/m3 34.74 ug/m3 19.28 ug/m3 0.29 mg/m3 21.51 C 84.86 % N/A 2.29 m/s 59.75 Deg 14.72 ug/m3 1.4 ug/m3
2021-06-06 22:00 40.12 ug/m3 0.24 ug/m3 30.35 ug/m3 21.32 ug/m3 0.33 mg/m3 22.1 C 77.32 % N/A 2.04 m/s 53.45 Deg 18.66 ug/m3 1.29 ug/m3
2021-06-06 21:00 41.13 ug/m3 0.29 ug/m3 27.56 ug/m3 13.22 ug/m3 0.41 mg/m3 22.54 C 71.07 % N/A 1.64 m/s 184.58 Deg 24.77 ug/m3 1.1 ug/m3
2021-06-06 20:00 25.28 ug/m3 0.14 ug/m3 27.53 ug/m3 3.65 ug/m3 0.32 mg/m3 22.89 C 68.16 % N/A 1.73 m/s 134.1 Deg 10.92 ug/m3 0.47 ug/m3
2021-06-06 19:00 15.95 ug/m3 0.07 ug/m3 20.69 ug/m3 4.86 ug/m3 0.24 mg/m3 23.36 C 64.42 % N/A 2.16 m/s 155.78 Deg 5.42 ug/m3 0.52 ug/m3
2021-06-06 18:00 13.32 ug/m3 0.05 ug/m3 23.27 ug/m3 6.47 ug/m3 0.18 mg/m3 23.9 C 60.2 % N/A 2.84 m/s 158.43 Deg 3.75 ug/m3 0.47 ug/m3
2021-06-06 17:00 13.29 ug/m3 0.07 ug/m3 11.48 ug/m3 4.78 ug/m3 0.22 mg/m3 24.52 C 58.19 % N/A 2.91 m/s 137.52 Deg 6.35 ug/m3 0.42 ug/m3
2021-06-06 16:00 12.19 ug/m3 0.07 ug/m3 11.24 ug/m3 6.61 ug/m3 0.18 mg/m3 24.89 C 53.92 % N/A 2.53 m/s 134.67 Deg 6.75 ug/m3 0.31 ug/m3
2021-06-06 15:00 11.63 ug/m3 0.09 ug/m3 16.16 ug/m3 5.26 ug/m3 0.2 mg/m3 25.06 C 49.14 % N/A 2.84 m/s 124.82 Deg 6.16 ug/m3 0.44 ug/m3
2021-06-06 14:00 18.34 ug/m3 0.14 ug/m3 13.66 ug/m3 8.75 ug/m3 0.21 mg/m3 25.08 C 50.12 % N/A 3.13 m/s 183.62 Deg 8.19 ug/m3 0.34 ug/m3
2021-06-06 13:00 18.33 ug/m3 0.19 ug/m3 16.08 ug/m3 14.59 ug/m3 0.22 mg/m3 25.21 C 47.57 % N/A 2.83 m/s 139.25 Deg 12.58 ug/m3 0.42 ug/m3
2021-06-06 12:00 26.66 ug/m3 0.19 ug/m3 13.17 ug/m3 9.99 ug/m3 0.29 mg/m3 24.44 C 54.93 % N/A 3.08 m/s 75.78 Deg 11.31 ug/m3 1.1 ug/m3
2021-06-06 11:00 30.55 ug/m3 0.29 ug/m3 13.8 ug/m3 14.3 ug/m3 0.35 mg/m3 24.73 C 53.23 % N/A 2.43 m/s 69.1 Deg 15.43 ug/m3 1.54 ug/m3
2021-06-06 10:00 27.31 ug/m3 0.24 ug/m3 20.58 ug/m3 13.82 ug/m3 0.34 mg/m3 24.71 C 50.27 % N/A 2.37 m/s 182.4 Deg 12.75 ug/m3 0.58 ug/m3
2021-06-06 09:00 20.75 ug/m3 0.19 ug/m3 34.52 ug/m3 25.64 ug/m3 0.25 mg/m3 24.55 C 42.47 % N/A 2.35 m/s 130.03 Deg 9.78 ug/m3 0.91 ug/m3
2021-06-06 08:00 45.36 ug/m3 0.31 ug/m3 50.42 ug/m3 42.71 ug/m3 0.31 mg/m3 23.65 C 48.96 % N/A 1.5 m/s 125.17 Deg 14.07 ug/m3 1.08 ug/m3
2021-06-06 07:00 53.95 ug/m3 0.35 ug/m3 55.37 ug/m3 34.13 ug/m3 0.38 mg/m3 21.82 C 71.64 % N/A 0.72 m/s 114.57 Deg 17.13 ug/m3 2.52 ug/m3
2021-06-06 06:00 73.39 ug/m3 0.82 ug/m3 51 ug/m3 25.38 ug/m3 0.58 mg/m3 20.95 C 69.71 % N/A 0.3 m/s 42.36 Deg 43.81 ug/m3 2.66 ug/m3
2021-06-06 05:00 70.78 ug/m3 0.75 ug/m3 42.91 ug/m3 16.42 ug/m3 0.43 mg/m3 20.58 C 66.22 % N/A 0.1 m/s 38.04 Deg 33.1 ug/m3 2.26 ug/m3
2021-06-06 04:00 70.75 ug/m3 0.45 ug/m3 41.74 ug/m3 26.58 ug/m3 0.36 mg/m3 20.34 C 67.59 % N/A 0.41 m/s 46.72 Deg 14.9 ug/m3 1.99 ug/m3
2021-06-06 03:00 41.57 ug/m3 0.24 ug/m3 26.15 ug/m3 17.03 ug/m3 0.14 mg/m3 20.95 C 75.99 % N/A 0.55 m/s 52.7 Deg 4.01 ug/m3 1.05 ug/m3
2021-06-06 02:00 28.59 ug/m3 0.23 ug/m3 24.7 ug/m3 6.15 ug/m3 0.21 mg/m3 21.33 C 76.29 % N/A 0.71 m/s 60.78 Deg 5.23 ug/m3 1.63 ug/m3
2021-06-06 01:00 28.05 ug/m3 0.33 ug/m3 40.05 ug/m3 10.15 ug/m3 0.26 mg/m3 21.56 C 70.24 % N/A 1.24 m/s 62.57 Deg 8.98 ug/m3 1.42 ug/m3
2021-06-06 00:00 55.94 ug/m3 0.52 ug/m3 27.45 ug/m3 15.62 ug/m3 0.42 mg/m3 21.97 C 60.11 % N/A 1.32 m/s 52.97 Deg 20.09 ug/m3 4.06 ug/m3
2021-06-05 23:00 34.27 ug/m3 0.23 ug/m3 23.44 ug/m3 7.79 ug/m3 0.29 mg/m3 23.39 C 34.55 % N/A 0.64 m/s 181.08 Deg 4.58 ug/m3 0.98 ug/m3
2021-06-05 22:00 23.88 ug/m3 0.2 ug/m3 29.31 ug/m3 9.07 ug/m3 0.19 mg/m3 23.8 C 31.67 % N/A 0.85 m/s 218.18 Deg -0.21 ug/m3 1.05 ug/m3
2021-06-05 21:00 24.64 ug/m3 0.21 ug/m3 20.95 ug/m3 12.03 ug/m3 0.22 mg/m3 24.05 C 34.18 % N/A 1.04 m/s 194.83 Deg 0.1 ug/m3 1.08 ug/m3
2021-06-05 20:00 29.05 ug/m3 0.21 ug/m3 18.83 ug/m3 4.01 ug/m3 0.21 mg/m3 24.56 C 33.91 % N/A 1.12 m/s 166.23 Deg 1.69 ug/m3 0.79 ug/m3
2021-06-05 19:00 21.51 ug/m3 0.21 ug/m3 20.3 ug/m3 4.55 ug/m3 0.17 mg/m3 25.24 C 31.22 % N/A 1.18 m/s 178.63 Deg 2.84 ug/m3 0.58 ug/m3
2021-06-05 18:00 16.88 ug/m3 0.16 ug/m3 22.84 ug/m3 4.82 ug/m3 0.17 mg/m3 25.86 C 31.37 % N/A 1.58 m/s 190.87 Deg 4.09 ug/m3 0.49 ug/m3
2021-06-05 17:00 20.24 ug/m3 0.22 ug/m3 15.66 ug/m3 8.03 ug/m3 0.16 mg/m3 26.49 C 30.84 % N/A 1.63 m/s 175.77 Deg 9.44 ug/m3 0.42 ug/m3
2021-06-05 16:00 24.75 ug/m3 0.2 ug/m3 19.82 ug/m3 12.71 ug/m3 0.21 mg/m3 26.24 C 35.33 % N/A 1.8 m/s 63.72 Deg 8.53 ug/m3 0.94 ug/m3
2021-06-05 15:00 26.48 ug/m3 0.27 ug/m3 19.93 ug/m3 6.74 ug/m3 0.28 mg/m3 25.71 C 43.76 % N/A 2.34 m/s 31.52 Deg 14.87 ug/m3 1.89 ug/m3
2021-06-05 14:00 27.4 ug/m3 0.29 ug/m3 10.94 ug/m3 6.22 ug/m3 0.24 mg/m3 25.46 C 39.29 % N/A 3.25 m/s 42.33 Deg 12.63 ug/m3 0.84 ug/m3
2021-06-05 13:00 28.13 ug/m3 0.34 ug/m3 12.41 ug/m3 6.28 ug/m3 0.3 mg/m3 25.01 C 36.03 % N/A 3.3 m/s 62.45 Deg 18.93 ug/m3 1.6 ug/m3
2021-06-05 12:00 43.37 ug/m3 0.4 ug/m3 16.36 ug/m3 5.2 ug/m3 0.38 mg/m3 25.27 C 38.23 % N/A 3.36 m/s 58.35 Deg 24.08 ug/m3 1.39 ug/m3
2021-06-05 11:00 37.52 ug/m3 0.34 ug/m3 24.01 ug/m3 10.4 ug/m3 0.29 mg/m3 26.16 C 27.58 % N/A 2.25 m/s 39.75 Deg 22.87 ug/m3 1.29 ug/m3
2021-06-05 10:00 50.43 ug/m3 0.56 ug/m3 41.08 ug/m3 13.17 ug/m3 0.38 mg/m3 25.73 C 26.88 % N/A 2.25 m/s 59.18 Deg 33.46 ug/m3 1.42 ug/m3
2021-06-05 09:00 56.09 ug/m3 0.52 ug/m3 62.62 ug/m3 21.09 ug/m3 0.36 mg/m3 25.39 C 30.82 % N/A 0.84 m/s 117.44 Deg 35.05 ug/m3 2.23 ug/m3
2021-06-05 08:00 81.19 ug/m3 0.56 ug/m3 63.91 ug/m3 36.71 ug/m3 0.5 mg/m3 23.83 C 45.22 % N/A 0.56 m/s 185.47 Deg 38.22 ug/m3 3.01 ug/m3
2021-06-05 07:00 75.73 ug/m3 0.5 ug/m3 58.98 ug/m3 24.81 ug/m3 0.4 mg/m3 21.87 C 65.48 % N/A 0.53 m/s 231.23 Deg 29.47 ug/m3 3.36 ug/m3
2021-06-05 06:00 65.71 ug/m3 0.37 ug/m3 44.84 ug/m3 17.55 ug/m3 0.44 mg/m3 20.95 C 77.94 % N/A 0.39 m/s 240.04 Deg 22.89 ug/m3 1.05 ug/m3
2021-06-05 05:00 33.65 ug/m3 -0.01 ug/m3 32.26 ug/m3 20.02 ug/m3 0.15 mg/m3 20.59 C 83.86 % N/A 0.6 m/s 248.08 Deg 3.76 ug/m3 0.34 ug/m3
2021-06-05 04:00 15.51 ug/m3 0.04 ug/m3 32.68 ug/m3 15.88 ug/m3 0.13 mg/m3 20.76 C 82.48 % N/A 0.47 m/s 168.39 Deg 3.02 ug/m3 0.6 ug/m3
2021-06-05 03:00 47.33 ug/m3 0.19 ug/m3 43.43 ug/m3 13.22 ug/m3 0.2 mg/m3 21.06 C 69.6 % N/A 0.52 m/s 290.1 Deg 12.97 ug/m3 3.31 ug/m3
2021-06-05 02:00 57.76 ug/m3 0.37 ug/m3 51.3 ug/m3 11.39 ug/m3 0.38 mg/m3 21.03 C 60.77 % N/A 0.4 m/s 146.08 Deg 12.25 ug/m3 1.55 ug/m3
2021-06-05 01:00 42.47 ug/m3 0.2 ug/m3 37.14 ug/m3 12.92 ug/m3 0.32 mg/m3 21.06 C 74.1 % N/A 0.58 m/s 60.83 Deg 9.28 ug/m3 1.52 ug/m3
2021-06-05 00:00 59.48 ug/m3 0.46 ug/m3 31.99 ug/m3 21.4 ug/m3 0.37 mg/m3 21.44 C 73.93 % N/A 1.03 m/s 58.22 Deg 21.27 ug/m3 5.93 ug/m3
2021-06-04 23:00 52.68 ug/m3 0.44 ug/m3 32.36 ug/m3 11.74 ug/m3 0.35 mg/m3 21.98 C 64.15 % N/A 0.92 m/s 113.97 Deg 18.88 ug/m3 1.92 ug/m3
2021-06-04 22:00 40.55 ug/m3 0.18 ug/m3 35.86 ug/m3 4.86 ug/m3 0.25 mg/m3 22.53 C 53.83 % N/A 0.67 m/s 159.57 Deg 4.51 ug/m3 1.07 ug/m3
2021-06-04 21:00 63.17 ug/m3 0.58 ug/m3 21.35 ug/m3 5.86 ug/m3 0.56 mg/m3 22.47 C 57.62 % N/A 1.06 m/s 109.3 Deg 39.31 ug/m3 1.84 ug/m3
2021-06-04 20:00 44.05 ug/m3 0.3 ug/m3 25.71 ug/m3 4.5 ug/m3 0.34 mg/m3 23.09 C 49.52 % N/A 0.97 m/s 156.1 Deg 19.1 ug/m3 0.89 ug/m3
2021-06-04 19:00 40.65 ug/m3 0.32 ug/m3 15.71 ug/m3 3.35 ug/m3 0.36 mg/m3 23.76 C 48.86 % N/A 1.47 m/s 141.53 Deg 22.56 ug/m3 1.08 ug/m3
2021-06-04 18:00 25.92 ug/m3 0.17 ug/m3 16.58 ug/m3 3.04 ug/m3 0.24 mg/m3 24.34 C 46.6 % N/A 2.03 m/s 139.68 Deg 12.01 ug/m3 0.52 ug/m3
2021-06-04 17:00 38.47 ug/m3 0.26 ug/m3 17.63 ug/m3 4.03 ug/m3 0.25 mg/m3 24.77 C 40.01 % N/A 2.62 m/s 128.43 Deg 20.51 ug/m3 0.79 ug/m3
2021-06-04 16:00 42.22 ug/m3 0.28 ug/m3 9.69 ug/m3 6.13 ug/m3 0.27 mg/m3 25.23 C 34.51 % N/A 2.57 m/s 122.53 Deg 23.38 ug/m3 5.09 ug/m3
2021-06-04 15:00 38.2 ug/m3 0.36 ug/m3 7.11 ug/m3 5.99 ug/m3 0.32 mg/m3 25.3 C 36.03 % N/A 3.05 m/s 138.93 Deg 31.38 ug/m3 0.73 ug/m3
2021-06-04 14:00 35.04 ug/m3 0.33 ug/m3 6.49 ug/m3 5.9 ug/m3 0.32 mg/m3 24.39 C 47.85 % N/A 3.59 m/s 58.73 Deg 32.54 ug/m3 0.89 ug/m3
2021-06-04 13:00 34.5 ug/m3 0.25 ug/m3 10.2 ug/m3 9.26 ug/m3 0.31 mg/m3 23.76 C 55.19 % N/A 4.34 m/s 45.85 Deg 27.64 ug/m3 1.31 ug/m3
2021-06-04 12:00 36.42 ug/m3 0.26 ug/m3 12.22 ug/m3 11.42 ug/m3 0.28 mg/m3 23.14 C 64.18 % N/A 4.15 m/s 48.23 Deg 30.81 ug/m3 1.1 ug/m3
2021-06-04 11:00 29.25 ug/m3 0.25 ug/m3 16.95 ug/m3 17.17 ug/m3 0.31 mg/m3 22.45 C 72.88 % N/A 4.27 m/s 46.5 Deg 28.07 ug/m3 0.71 ug/m3
2021-06-04 10:00 32.95 ug/m3 0.24 ug/m3 26.24 ug/m3 9.54 ug/m3 0.33 mg/m3 22.2 C 75.7 % N/A 3.86 m/s 45.37 Deg 27.94 ug/m3 0.58 ug/m3
2021-06-04 09:00 30.65 ug/m3 0.28 ug/m3 28.77 ug/m3 15.59 ug/m3 0.36 mg/m3 21.66 C 79.63 % N/A 3.47 m/s 47.17 Deg 32.1 ug/m3 1.63 ug/m3
2021-06-04 08:00 28.68 ug/m3 0.27 ug/m3 41.85 ug/m3 24.21 ug/m3 0.38 mg/m3 21.11 C 82.65 % N/A 2.86 m/s 51.3 Deg 29.44 ug/m3 0.89 ug/m3
2021-06-04 07:00 42.06 ug/m3 0.32 ug/m3 31.36 ug/m3 14.25 ug/m3 0.46 mg/m3 20.74 C 83.77 % N/A 1.71 m/s 51.53 Deg 34.29 ug/m3 2.41 ug/m3
2021-06-04 06:00 41.86 ug/m3 0.29 ug/m3 19.76 ug/m3 3.76 ug/m3 0.42 mg/m3 20.27 C 86.33 % N/A 1.12 m/s 49.58 Deg 28.01 ug/m3 1.71 ug/m3
2021-06-04 05:00 29.73 ug/m3 0.05 ug/m3 10.25 ug/m3 4.07 ug/m3 0.26 mg/m3 20.15 C 86.85 % N/A 1.04 m/s 59.83 Deg 11.07 ug/m3 0.7 ug/m3
2021-06-04 04:00 11.59 ug/m3 -0.03 ug/m3 11.93 ug/m3 6.67 ug/m3 0.14 mg/m3 20.31 C 85.37 % N/A 1.01 m/s 61.63 Deg 3.34 ug/m3 0.7 ug/m3
2021-06-04 03:00 7.49 ug/m3 -0.02 ug/m3 18.21 ug/m3 7.9 ug/m3 0.1 mg/m3 20.41 C 84.75 % N/A 1.22 m/s 57.57 Deg 1.12 ug/m3 0.7 ug/m3
2021-06-04 02:00 6.16 ug/m3 -0.06 ug/m3 19.08 ug/m3 12.17 ug/m3 0.13 mg/m3 20.51 C 83.69 % N/A 1.77 m/s 55.28 Deg 0.84 ug/m3 1.47 ug/m3
2021-06-04 01:00 13.65 ug/m3 -0.03 ug/m3 25.77 ug/m3 17.57 ug/m3 0.14 mg/m3 20.69 C 83.4 % N/A 1.79 m/s 57.45 Deg 1.72 ug/m3 0.44 ug/m3
2021-06-04 00:00 23.77 ug/m3 0.06 ug/m3 27.3 ug/m3 14.39 ug/m3 0.18 mg/m3 20.85 C 82.71 % N/A 1.57 m/s 60.88 Deg 5.56 ug/m3 0.56 ug/m3
2021-06-03 23:00 32.48 ug/m3 0.04 ug/m3 24.45 ug/m3 20.06 ug/m3 0.21 mg/m3 20.94 C 82.44 % N/A 2.2 m/s 59.82 Deg 6.52 ug/m3 1.63 ug/m3
2021-06-03 22:00 31.05 ug/m3 0.14 ug/m3 26.33 ug/m3 18.21 ug/m3 0.24 mg/m3 21.05 C 80.97 % N/A 2.21 m/s 67.67 Deg 11.24 ug/m3 0.76 ug/m3
2021-06-03 21:00 31.42 ug/m3 0.15 ug/m3 24.71 ug/m3 11.34 ug/m3 0.28 mg/m3 21.14 C 79.73 % N/A 2.76 m/s 60.45 Deg 14.47 ug/m3 0.65 ug/m3
2021-06-03 20:00 47.66 ug/m3 0.22 ug/m3 33.18 ug/m3 13.15 ug/m3 0.29 mg/m3 21.4 C 76.35 % N/A 3.1 m/s 72.83 Deg 16.7 ug/m3 0.79 ug/m3
2021-06-03 19:00 31.83 ug/m3 0.2 ug/m3 25.97 ug/m3 4.51 ug/m3 0.35 mg/m3 21.91 C 71.29 % N/A 3.14 m/s 197.6 Deg 16.84 ug/m3 1.08 ug/m3
2021-06-03 18:00 29.01 ug/m3 0.2 ug/m3 16.74 ug/m3 4.22 ug/m3 0.3 mg/m3 22.69 C 61.33 % N/A 3.63 m/s 83.08 Deg 15 ug/m3 0.84 ug/m3
2021-06-03 17:00 53.37 ug/m3 0.37 ug/m3 19.96 ug/m3 5.34 ug/m3 0.32 mg/m3 23.06 C 55.58 % N/A 3.62 m/s 118.43 Deg 33.57 ug/m3 0.89 ug/m3
2021-06-03 16:00 54.31 ug/m3 0.39 ug/m3 13.51 ug/m3 3.95 ug/m3 0.31 mg/m3 23.25 C 51.02 % N/A 4.4 m/s 69.17 Deg 32.05 ug/m3 1.15 ug/m3
2021-06-03 15:00 41.93 ug/m3 0.24 ug/m3 6.02 ug/m3 5.2 ug/m3 0.31 mg/m3 23.2 C 56.01 % N/A 4.59 m/s 68.43 Deg 26.43 ug/m3 0.52 ug/m3
2021-06-03 14:00 37.12 ug/m3 0.23 ug/m3 6.48 ug/m3 5.97 ug/m3 0.27 mg/m3 23.06 C 60.33 % N/A 4.75 m/s 65.1 Deg 24.91 ug/m3 0.89 ug/m3
2021-06-03 13:00 30.12 ug/m3 0.28 ug/m3 8.38 ug/m3 7.31 ug/m3 0.32 mg/m3 22.67 C 59.72 % N/A 5.4 m/s 51.83 Deg 28.11 ug/m3 0.52 ug/m3
2021-06-03 12:00 28.46 ug/m3 0.16 ug/m3 9.86 ug/m3 8.94 ug/m3 0.29 mg/m3 22.31 C 61 % N/A 5.51 m/s 55.33 Deg 21.12 ug/m3 0.86 ug/m3
2021-06-03 11:00 32.13 ug/m3 0.21 ug/m3 14.45 ug/m3 10.76 ug/m3 0.26 mg/m3 22 C 66.34 % N/A 5.31 m/s 56.23 Deg 20 ug/m3 0.94 ug/m3
2021-06-03 10:00 23.15 ug/m3 0.12 ug/m3 20.93 ug/m3 15.31 ug/m3 0.28 mg/m3 21.62 C 73.16 % N/A 5.11 m/s 52.22 Deg 19.35 ug/m3 0.94 ug/m3
2021-06-03 09:00 32.38 ug/m3 0.21 ug/m3 37.88 ug/m3 29.63 ug/m3 0.3 mg/m3 21.59 C 73.11 % N/A 4.53 m/s 58.7 Deg 23.32 ug/m3 0.7 ug/m3
2021-06-03 08:00 33.27 ug/m3 0.12 ug/m3 35.76 ug/m3 28 ug/m3 0.29 mg/m3 21.24 C 75.14 % N/A 4.76 m/s 57.37 Deg 20.55 ug/m3 0.6 ug/m3
2021-06-03 07:00 23.85 ug/m3 0.15 ug/m3 28.24 ug/m3 21.41 ug/m3 0.36 mg/m3 20.95 C 76.95 % N/A 4.4 m/s 55.15 Deg 21.64 ug/m3 0.68 ug/m3
2021-06-03 06:00 27.44 ug/m3 0.1 ug/m3 14.91 ug/m3 7.21 ug/m3 0.28 mg/m3 20.6 C 77.91 % N/A 3.31 m/s 55.92 Deg 17.35 ug/m3 0.26 ug/m3
2021-06-03 05:00 34.79 ug/m3 -0.05 ug/m3 17.14 ug/m3 11.63 ug/m3 0.18 mg/m3 20.37 C 77.76 % N/A 3.25 m/s 60.13 Deg 5.11 ug/m3 0.26 ug/m3
2021-06-03 04:00 17.72 ug/m3 -0.06 ug/m3 20.06 ug/m3 8.15 ug/m3 0.13 mg/m3 20.4 C 79.24 % N/A 3.24 m/s 56.22 Deg 0.8 ug/m3 0.34 ug/m3
2021-06-03 03:00 16.1 ug/m3 -0.1 ug/m3 20.43 ug/m3 12.94 ug/m3 0.1 mg/m3 20.38 C 80.83 % N/A 3.34 m/s 57.33 Deg 0.11 ug/m3 0.26 ug/m3
2021-06-03 02:00 9.2 ug/m3 -0.09 ug/m3 18.43 ug/m3 16.07 ug/m3 0.14 mg/m3 20.43 C 82 % N/A 2.95 m/s 59.85 Deg 0.24 ug/m3 0.26 ug/m3
2021-06-03 01:00 25.2 ug/m3 -0.04 ug/m3 18.55 ug/m3 17.3 ug/m3 0.14 mg/m3 20.53 C 81.93 % N/A 3.21 m/s 57.87 Deg 2.08 ug/m3 0.28 ug/m3
2021-06-03 00:00 31.06 ug/m3 -0.06 ug/m3 30.78 ug/m3 10.27 ug/m3 0.17 mg/m3 20.62 C 82.05 % N/A 3.12 m/s 61.75 Deg 4.15 ug/m3 0.42 ug/m3
2021-06-02 23:00 29.86 ug/m3 -0.07 ug/m3 35.04 ug/m3 6.63 ug/m3 0.17 mg/m3 20.67 C 81.88 % N/A 3.91 m/s 59.53 Deg 5.07 ug/m3 0.47 ug/m3
2021-06-02 22:00 27.41 ug/m3 -0.05 ug/m3 33.98 ug/m3 9.13 ug/m3 0.21 mg/m3 20.83 C 80.14 % N/A 3.6 m/s 64.72 Deg 7.87 ug/m3 0.28 ug/m3
2021-06-02 21:00 25.9 ug/m3 0.01 ug/m3 35.08 ug/m3 13.7 ug/m3 0.22 mg/m3 20.97 C 77.19 % N/A 3.53 m/s 74.27 Deg 11.7 ug/m3 2.26 ug/m3
2021-06-02 20:00 30.78 ug/m3 0.09 ug/m3 26.81 ug/m3 12.83 ug/m3 0.27 mg/m3 21.08 C 76.07 % N/A 3.77 m/s 69.12 Deg 13.85 ug/m3 0.82 ug/m3
2021-06-02 19:00 22.02 ug/m3 0.05 ug/m3 32.59 ug/m3 10.11 ug/m3 0.25 mg/m3 21.22 C 75.08 % N/A 5.08 m/s 63.3 Deg 14.24 ug/m3 1.24 ug/m3
2021-06-02 18:00 25.15 ug/m3 0.06 ug/m3 22.95 ug/m3 18.46 ug/m3 0.27 mg/m3 21.45 C 73.66 % N/A 5.15 m/s 59.3 Deg 16.32 ug/m3 0.94 ug/m3
2021-06-02 17:00 17.33 ug/m3 0.07 ug/m3 30.26 ug/m3 11.01 ug/m3 0.28 mg/m3 21.52 C 72.73 % N/A 5.58 m/s 50.32 Deg 14.87 ug/m3 0.37 ug/m3
2021-06-02 16:00 26.03 ug/m3 0.12 ug/m3 22.7 ug/m3 8.38 ug/m3 0.31 mg/m3 22.07 C 71.22 % N/A 4.82 m/s 56.88 Deg 19.29 ug/m3 0.77 ug/m3
2021-06-02 15:00 31.45 ug/m3 0.26 ug/m3 26.76 ug/m3 11.63 ug/m3 0.29 mg/m3 22.34 C 67.19 % N/A 4.64 m/s 70.83 Deg 21.39 ug/m3 0.86 ug/m3
2021-06-02 14:00 27.74 ug/m3 0.19 ug/m3 19.46 ug/m3 8.55 ug/m3 0.27 mg/m3 22.42 C 58.32 % N/A 4.72 m/s 71.48 Deg 23.39 ug/m3 2.89 ug/m3
2021-06-02 13:00 44.62 ug/m3 0.2 ug/m3 24.35 ug/m3 12.43 ug/m3 0.29 mg/m3 22.33 C 57.79 % N/A 4.49 m/s 150.18 Deg 27.53 ug/m3 0.34 ug/m3
2021-06-02 12:00 33.77 ug/m3 0.12 ug/m3 41.42 ug/m3 16.84 ug/m3 0.29 mg/m3 22.34 C 66 % N/A 4.17 m/s 253.63 Deg 23.69 ug/m3 0.86 ug/m3
2021-06-02 11:00 36.98 ug/m3 0.12 ug/m3 42.5 ug/m3 11.64 ug/m3 0.33 mg/m3 21.9 C 77.73 % N/A 3.61 m/s 81.52 Deg 28.71 ug/m3 0.6 ug/m3
2021-06-02 10:00 37.95 ug/m3 0.16 ug/m3 33.82 ug/m3 17.09 ug/m3 0.3 mg/m3 21.81 C 80.06 % N/A 3.76 m/s 61.23 Deg 26.66 ug/m3 1.1 ug/m3
2021-06-02 09:00 39.17 ug/m3 0.17 ug/m3 31.44 ug/m3 30.84 ug/m3 0.33 mg/m3 21.3 C 85.78 % N/A 3.52 m/s 66.98 Deg 28.76 ug/m3 0.71 ug/m3
2021-06-02 08:00 61.01 ug/m3 0.29 ug/m3 28.19 ug/m3 12.57 ug/m3 0.38 mg/m3 21.01 C 86.78 % N/A 2.53 m/s 137.27 Deg 34.86 ug/m3 0.86 ug/m3
2021-06-02 07:00 47.84 ug/m3 0.2 ug/m3 27.59 ug/m3 12.22 ug/m3 0.4 mg/m3 21.41 C 83.71 % N/A 3.07 m/s 61.17 Deg 32.55 ug/m3 0.82 ug/m3
2021-06-02 06:00 46.85 ug/m3 0.09 ug/m3 33.85 ug/m3 16.36 ug/m3 0.33 mg/m3 21.2 C 86.27 % N/A 2.69 m/s 68.07 Deg 22.81 ug/m3 1.68 ug/m3
2021-06-02 05:00 44.36 ug/m3 -0.05 ug/m3 31.4 ug/m3 19.97 ug/m3 0.2 mg/m3 21.25 C 86.17 % N/A 2.16 m/s 78.25 Deg 9.81 ug/m3 0.34 ug/m3
2021-06-02 04:00 25.97 ug/m3 -0.13 ug/m3 21.24 ug/m3 4.8 ug/m3 0.14 mg/m3 21.26 C 85.74 % N/A 2.2 m/s 67.95 Deg 3.74 ug/m3 0.47 ug/m3
2021-06-02 03:00 26.51 ug/m3 -0.14 ug/m3 21.08 ug/m3 5.84 ug/m3 0.1 mg/m3 21.29 C 84.21 % N/A 2.08 m/s 127.95 Deg 3.7 ug/m3 0.26 ug/m3
2021-06-02 02:00 23.11 ug/m3 -0.15 ug/m3 15.53 ug/m3 5.5 ug/m3 0.14 mg/m3 21.18 C 84.35 % N/A 2.2 m/s 64.17 Deg 1.3 ug/m3 0.28 ug/m3
2021-06-02 01:00 27.29 ug/m3 -0.11 ug/m3 20.57 ug/m3 9.72 ug/m3 0.15 mg/m3 21.12 C 84.06 % N/A 2.4 m/s 123.55 Deg 2.79 ug/m3 0.34 ug/m3
2021-06-02 00:00 27.03 ug/m3 -0.11 ug/m3 24.91 ug/m3 11.64 ug/m3 0.17 mg/m3 21.19 C 83.59 % N/A 2.02 m/s 119.85 Deg 4.43 ug/m3 0.47 ug/m3
2021-06-01 23:00 27.21 ug/m3 -0.06 ug/m3 36.81 ug/m3 16.81 ug/m3 0.21 mg/m3 21.26 C 82.48 % N/A 2.15 m/s 139.52 Deg 7.58 ug/m3 0.42 ug/m3
2021-06-01 22:00 21.43 ug/m3 -0.03 ug/m3 28.41 ug/m3 28.69 ug/m3 0.21 mg/m3 21.44 C 80.73 % N/A 2.15 m/s 221.2 Deg 7.9 ug/m3 0.89 ug/m3
2021-06-01 21:00 25.57 ug/m3 0.02 ug/m3 26.36 ug/m3 20.69 ug/m3 0.26 mg/m3 21.68 C 79.46 % N/A 1.83 m/s 190.35 Deg 12.03 ug/m3 0.68 ug/m3
2021-06-01 20:00 35.48 ug/m3 0.06 ug/m3 30.56 ug/m3 11.58 ug/m3 0.36 mg/m3 21.78 C 77.83 % N/A 1.94 m/s 123.58 Deg 14.24 ug/m3 0.58 ug/m3
2021-06-01 19:00 36.55 ug/m3 0.13 ug/m3 25.14 ug/m3 15.22 ug/m3 0.31 mg/m3 21.95 C 75.43 % N/A 2.16 m/s 171.33 Deg 17.24 ug/m3 1.4 ug/m3
2021-06-01 18:00 33.25 ug/m3 0.18 ug/m3 34.93 ug/m3 11.84 ug/m3 0.37 mg/m3 22.44 C 71.18 % N/A 2.26 m/s 97.48 Deg 23.29 ug/m3 0.91 ug/m3
2021-06-01 17:00 34.35 ug/m3 0.13 ug/m3 32.33 ug/m3 16.78 ug/m3 0.35 mg/m3 22.58 C 70.89 % N/A 2.02 m/s 115.95 Deg 19.94 ug/m3 0.82 ug/m3
2021-06-01 16:00 33.95 ug/m3 0.15 ug/m3 26.73 ug/m3 7.95 ug/m3 0.37 mg/m3 22.78 C 70.67 % N/A 2.54 m/s 106.62 Deg 22.38 ug/m3 1.63 ug/m3
2021-06-01 15:00 40.64 ug/m3 0.26 ug/m3 25.6 ug/m3 14.26 ug/m3 0.4 mg/m3 22.59 C 73.32 % N/A 2.9 m/s 67.58 Deg 33.52 ug/m3 1.15 ug/m3
2021-06-01 14:00 24.07 ug/m3 0.16 ug/m3 17.75 ug/m3 13.55 ug/m3 0.31 mg/m3 22 C 77.98 % N/A 4.31 m/s 48.78 Deg 28.4 ug/m3 0.73 ug/m3
2021-06-01 13:00 24.74 ug/m3 0.11 ug/m3 16.08 ug/m3 22.62 ug/m3 0.31 mg/m3 21.84 C 76.83 % N/A 4.67 m/s 48.45 Deg 22.33 ug/m3 1.08 ug/m3
2021-06-01 12:00 27.35 ug/m3 0.12 ug/m3 21.22 ug/m3 9.19 ug/m3 0.3 mg/m3 21.79 C 78.1 % N/A 4.79 m/s 48.92 Deg 20.37 ug/m3 1.08 ug/m3
2021-06-01 11:00 30.98 ug/m3 0.22 ug/m3 21.27 ug/m3 15.56 ug/m3 0.35 mg/m3 21.79 C 76.8 % N/A 2.71 m/s 50.97 Deg 29.47 ug/m3 1 ug/m3
2021-06-01 10:00 28.61 ug/m3 0.21 ug/m3 22.59 ug/m3 16.82 ug/m3 0.34 mg/m3 21.34 C 78.8 % N/A 2.72 m/s 52.65 Deg 33.96 ug/m3 0.87 ug/m3
2021-06-01 09:00 29.77 ug/m3 0.25 ug/m3 35.75 ug/m3 26.39 ug/m3 0.38 mg/m3 21.18 C 80.74 % N/A 3 m/s 51.7 Deg 32.34 ug/m3 1.1 ug/m3
2021-06-01 08:00 22.28 ug/m3 0.19 ug/m3 36.98 ug/m3 19.9 ug/m3 0.38 mg/m3 21.01 C 81.48 % N/A 3.23 m/s 54.35 Deg 27.54 ug/m3 1.05 ug/m3
2021-06-01 07:00 30.16 ug/m3 0.21 ug/m3 34.2 ug/m3 24.24 ug/m3 0.37 mg/m3 20.95 C 80.45 % N/A 2.35 m/s 40.67 Deg 28.74 ug/m3 1.21 ug/m3
2021-06-01 06:00 25.44 ug/m3 0.17 ug/m3 29.09 ug/m3 8.83 ug/m3 0.34 mg/m3 20.49 C 82.01 % N/A 1.68 m/s 31.57 Deg 23.52 ug/m3 0.52 ug/m3
2021-06-01 05:00 15.77 ug/m3 -0.08 ug/m3 24.52 ug/m3 11.72 ug/m3 0.21 mg/m3 20.4 C 82.72 % N/A 0.78 m/s 98.08 Deg 3.9 ug/m3 0.34 ug/m3
2021-06-01 04:00 6.84 ug/m3 -0.09 ug/m3 23.46 ug/m3 16.02 ug/m3 0.14 mg/m3 20.31 C 82.25 % N/A 0.9 m/s 310.22 Deg -0.25 ug/m3 0.21 ug/m3
2021-06-01 03:00 4.68 ug/m3 -0.1 ug/m3 24.8 ug/m3 7.87 ug/m3 0.1 mg/m3 20.33 C 81.22 % N/A 0.97 m/s 309.28 Deg -0.52 ug/m3 0.66 ug/m3
2021-06-01 02:00 6.63 ug/m3 -0.07 ug/m3 25.38 ug/m3 8.72 ug/m3 0.21 mg/m3 20.4 C 79.79 % N/A 0.89 m/s 252.6 Deg 0.08 ug/m3 0.47 ug/m3
2021-06-01 01:00 6.64 ug/m3 -0.11 ug/m3 33.14 ug/m3 13.25 ug/m3 0.13 mg/m3 20.51 C 78.53 % N/A 1.04 m/s 330.73 Deg -0.16 ug/m3 0.23 ug/m3
2021-06-01 00:00 7.63 ug/m3 -0.13 ug/m3 33.85 ug/m3 21.5 ug/m3 0.16 mg/m3 20.58 C 78.88 % N/A 1.21 m/s 294.75 Deg -0.34 ug/m3 0.28 ug/m3
2021-05-31 23:00 12.36 ug/m3 -0.06 ug/m3 32.61 ug/m3 18.05 ug/m3 0.16 mg/m3 20.73 C 76.9 % N/A 0.81 m/s 268.58 Deg 0.5 ug/m3 0.34 ug/m3
2021-05-31 22:00 14.14 ug/m3 -0.06 ug/m3 37.37 ug/m3 20 ug/m3 0.2 mg/m3 21.12 C 73.48 % N/A 1.37 m/s 258.62 Deg 0.66 ug/m3 0.56 ug/m3
2021-05-31 21:00 23.73 ug/m3 -0.09 ug/m3 34.07 ug/m3 6.7 ug/m3 0.23 mg/m3 21.62 C 70.46 % N/A 1.68 m/s 266.03 Deg 0.87 ug/m3 0.63 ug/m3
2021-05-31 20:00 28.43 ug/m3 -0.07 ug/m3 28.34 ug/m3 6.06 ug/m3 0.24 mg/m3 22.56 C 58.64 % N/A 1.67 m/s 262.38 Deg 1.71 ug/m3 0.84 ug/m3
2021-05-31 19:00 24.37 ug/m3 -0.05 ug/m3 29.69 ug/m3 9.89 ug/m3 0.25 mg/m3 23.71 C 51.67 % N/A 2.01 m/s 260.08 Deg 2.48 ug/m3 0.89 ug/m3
2021-05-31 18:00 23 ug/m3 -0.03 ug/m3 37.76 ug/m3 16.39 ug/m3 0.25 mg/m3 24.47 C 55.24 % N/A 1.9 m/s 245.15 Deg 2.73 ug/m3 0.98 ug/m3
2021-05-31 17:00 26.68 ug/m3 0.04 ug/m3 32.66 ug/m3 27.06 ug/m3 0.31 mg/m3 23.91 C 68.03 % N/A 1.74 m/s 294.57 Deg 8.81 ug/m3 0.84 ug/m3
2021-05-31 16:00 29.42 ug/m3 0.13 ug/m3 37.68 ug/m3 8.3 ug/m3 0.33 mg/m3 24 C 68.52 % N/A 2.31 m/s 170.1 Deg 14.82 ug/m3 1.5 ug/m3
2021-05-31 15:00 26.25 ug/m3 0.2 ug/m3 26.11 ug/m3 9.66 ug/m3 0.31 mg/m3 22.45 C 72.9 % N/A 3.29 m/s 51.02 Deg 28.28 ug/m3 0.63 ug/m3
2021-05-31 14:00 26.42 ug/m3 0.17 ug/m3 23.51 ug/m3 16.07 ug/m3 0.28 mg/m3 21.7 C 74.26 % N/A 3.54 m/s 57.17 Deg 21.64 ug/m3 0.76 ug/m3
2021-05-31 13:00 22.22 ug/m3 0.19 ug/m3 20.08 ug/m3 15.36 ug/m3 0.31 mg/m3 21.98 C 72.56 % N/A 3.2 m/s 48 Deg 25.97 ug/m3 0.71 ug/m3
2021-05-31 12:00 27.33 ug/m3 0.23 ug/m3 28.93 ug/m3 13.97 ug/m3 0.32 mg/m3 21.66 C 73.62 % N/A 2.74 m/s 53.15 Deg 26.8 ug/m3 0.79 ug/m3
2021-05-31 11:00 34.84 ug/m3 0.31 ug/m3 28.66 ug/m3 24.09 ug/m3 0.38 mg/m3 21.62 C 72.54 % N/A 3.03 m/s 55.43 Deg 30.04 ug/m3 1.29 ug/m3
2021-05-31 10:00 27.54 ug/m3 0.18 ug/m3 36.48 ug/m3 18.18 ug/m3 0.3 mg/m3 22.24 C 68.43 % N/A 2.2 m/s 19.82 Deg 23.82 ug/m3 2.05 ug/m3
2021-05-31 09:00 30.28 ug/m3 0.18 ug/m3 48.81 ug/m3 26.22 ug/m3 0.31 mg/m3 22.03 C 70.08 % N/A 1.43 m/s 252 Deg 18.3 ug/m3 0.97 ug/m3
2021-05-31 08:00 36.24 ug/m3 0.06 ug/m3 42.42 ug/m3 19.51 ug/m3 0.29 mg/m3 21.55 C 71.75 % N/A 1.4 m/s 276.77 Deg 11.27 ug/m3 1.15 ug/m3
2021-05-31 07:00 41.83 ug/m3 0.07 ug/m3 39.99 ug/m3 30.66 ug/m3 0.3 mg/m3 20.39 C 76.94 % N/A 1.71 m/s 254.98 Deg 10.61 ug/m3 0.92 ug/m3
2021-05-31 06:00 34.91 ug/m3 0.05 ug/m3 29.76 ug/m3 19.22 ug/m3 0.3 mg/m3 20.1 C 79.13 % N/A 1.48 m/s 256.78 Deg 7.13 ug/m3 0.47 ug/m3
2021-05-31 05:00 14.23 ug/m3 -0.08 ug/m3 26.46 ug/m3 10.98 ug/m3 0.16 mg/m3 19.87 C 80.22 % N/A 1.48 m/s 241.62 Deg 0.59 ug/m3 0.23 ug/m3
2021-05-31 04:00 6.75 ug/m3 -0.09 ug/m3 26.85 ug/m3 6.06 ug/m3 0.13 mg/m3 19.74 C 81.29 % N/A 1.27 m/s 244.15 Deg -0.2 ug/m3 0.34 ug/m3
2021-05-31 03:00 3.96 ug/m3 -0.05 ug/m3 27.92 ug/m3 10.38 ug/m3 0.09 mg/m3 19.67 C 83.51 % N/A 1.52 m/s 240.3 Deg -0.41 ug/m3 0.23 ug/m3
2021-05-31 02:00 2.76 ug/m3 -0.05 ug/m3 29.66 ug/m3 10.33 ug/m3 0.13 mg/m3 19.89 C 82.28 % N/A 1.51 m/s 241.58 Deg -0.47 ug/m3 0.23 ug/m3
2021-05-31 01:00 5.26 ug/m3 -0.03 ug/m3 26.09 ug/m3 19.24 ug/m3 0.13 mg/m3 20.2 C 77.86 % N/A 1.58 m/s 263.82 Deg -0.28 ug/m3 0.68 ug/m3
2021-05-31 00:00 5.33 ug/m3 -0.02 ug/m3 38.16 ug/m3 13.84 ug/m3 0.13 mg/m3 20.13 C 78.86 % N/A 1.75 m/s 220.93 Deg -0.48 ug/m3 0.31 ug/m3
2021-05-30 23:00 8.97 ug/m3 -0.06 ug/m3 48.21 ug/m3 15.99 ug/m3 0.15 mg/m3 20.17 C 79.02 % N/A 1.73 m/s 224.38 Deg -0.36 ug/m3 0.44 ug/m3
2021-05-30 22:00 17.45 ug/m3 0.03 ug/m3 46.52 ug/m3 19.08 ug/m3 0.2 mg/m3 20.38 C 78.75 % N/A 2.04 m/s 239.37 Deg 0.53 ug/m3 0.55 ug/m3
2021-05-30 21:00 25.61 ug/m3 0.01 ug/m3 46.79 ug/m3 20.72 ug/m3 0.21 mg/m3 20.68 C 77.81 % N/A 1.8 m/s 232.25 Deg 1.19 ug/m3 1.08 ug/m3
2021-05-30 20:00 26.85 ug/m3 -0.01 ug/m3 38.03 ug/m3 5.13 ug/m3 0.25 mg/m3 21.34 C 69.91 % N/A 1.85 m/s 256.82 Deg 1.36 ug/m3 0.68 ug/m3
2021-05-30 19:00 17.9 ug/m3 0.01 ug/m3 30.42 ug/m3 6.7 ug/m3 0.22 mg/m3 22.26 C 59.76 % N/A 2.5 m/s 254.07 Deg 1.17 ug/m3 0.42 ug/m3
2021-05-30 18:00 16.16 ug/m3 0.01 ug/m3 25.4 ug/m3 5.19 ug/m3 0.19 mg/m3 23.19 C 51.86 % N/A 3.28 m/s 262.52 Deg 1.94 ug/m3 0.55 ug/m3
2021-05-30 17:00 13.88 ug/m3 0.01 ug/m3 15.97 ug/m3 5.14 ug/m3 0.17 mg/m3 24.38 C 43.09 % N/A 3.26 m/s 262.13 Deg 1.34 ug/m3 0.49 ug/m3
2021-05-30 16:00 13.06 ug/m3 0.02 ug/m3 20.7 ug/m3 5.69 ug/m3 0.17 mg/m3 25.13 C 40.51 % N/A 2.85 m/s 262.25 Deg 1.42 ug/m3 0.37 ug/m3
2021-05-30 15:00 9.31 ug/m3 -0.01 ug/m3 13.01 ug/m3 4.23 ug/m3 0.15 mg/m3 25.59 C 40.05 % N/A 3.11 m/s 245.38 Deg 0.83 ug/m3 0.47 ug/m3
2021-05-30 14:00 11.15 ug/m3 -0.03 ug/m3 12.5 ug/m3 3.78 ug/m3 0.15 mg/m3 25.63 C 40.02 % N/A 3.21 m/s 256.53 Deg 1.46 ug/m3 0.47 ug/m3
2021-05-30 13:00 12.24 ug/m3 -0.03 ug/m3 12.43 ug/m3 5.01 ug/m3 0.16 mg/m3 26.18 C 37.65 % N/A 2.87 m/s 249.02 Deg 1.45 ug/m3 0.37 ug/m3
2021-05-30 12:00 15 ug/m3 -0.02 ug/m3 15.94 ug/m3 7.72 ug/m3 0.18 mg/m3 26.72 C 32.4 % N/A 3 m/s 256.35 Deg 1.87 ug/m3 0.7 ug/m3
2021-05-30 11:00 16.05 ug/m3 -0.06 ug/m3 14.43 ug/m3 11.38 ug/m3 0.2 mg/m3 26.21 C 38.96 % N/A 2.26 m/s 272.38 Deg 2.32 ug/m3 0.58 ug/m3
2021-05-30 10:00 15.47 ug/m3 -0.04 ug/m3 20.63 ug/m3 16.56 ug/m3 0.21 mg/m3 25.3 C 42.09 % N/A 2.52 m/s 256.22 Deg 1.76 ug/m3 0.81 ug/m3
2021-05-30 09:00 18.12 ug/m3 -0.02 ug/m3 26.73 ug/m3 27.6 ug/m3 0.25 mg/m3 24.5 C 47.73 % N/A 2.08 m/s 259.27 Deg 2.48 ug/m3 0.76 ug/m3
2021-05-30 08:00 14.49 ug/m3 -0.05 ug/m3 34.18 ug/m3 31.43 ug/m3 0.22 mg/m3 23.38 C 55.37 % N/A 1.72 m/s 252.42 Deg 1.23 ug/m3 0.91 ug/m3
2021-05-30 07:00 22.61 ug/m3 -0.05 ug/m3 34.64 ug/m3 12.38 ug/m3 0.25 mg/m3 22.06 C 60.98 % N/A 0.96 m/s 249.13 Deg 2.31 ug/m3 1.26 ug/m3
2021-05-30 06:00 34.18 ug/m3 -0.01 ug/m3 34.61 ug/m3 16.72 ug/m3 0.31 mg/m3 20.26 C 65.27 % N/A 0.61 m/s 227.49 Deg 1.89 ug/m3 1.97 ug/m3
2021-05-30 05:00 36.1 ug/m3 0.02 ug/m3 32.96 ug/m3 6.97 ug/m3 0.28 mg/m3 19.67 C 67.34 % N/A 0.79 m/s 236.97 Deg 3.34 ug/m3 1.28 ug/m3
2021-05-30 04:00 21.08 ug/m3 -0.07 ug/m3 29.07 ug/m3 9.19 ug/m3 0.22 mg/m3 19.97 C 65.54 % N/A 0.78 m/s 227.15 Deg -0.04 ug/m3 1.47 ug/m3
2021-05-30 03:00 24.77 ug/m3 -0.05 ug/m3 30.25 ug/m3 15.34 ug/m3 0.21 mg/m3 20.1 C 69.98 % N/A 0.85 m/s 237.8 Deg 0.31 ug/m3 1.33 ug/m3
2021-05-30 02:00 27.73 ug/m3 -0.05 ug/m3 22.92 ug/m3 11.76 ug/m3 0.32 mg/m3 20.32 C 80.32 % N/A 0.67 m/s 231.78 Deg 0.05 ug/m3 1.42 ug/m3
2021-05-30 01:00 34.8 ug/m3 -0.08 ug/m3 30.62 ug/m3 10.43 ug/m3 0.31 mg/m3 20.36 C 85.27 % N/A 0.64 m/s 174.41 Deg 2.85 ug/m3 1.19 ug/m3
2021-05-30 00:00 41.09 ug/m3 0.13 ug/m3 41.23 ug/m3 13.81 ug/m3 0.42 mg/m3 20.53 C 85.32 % N/A 0.73 m/s 64.67 Deg 14.53 ug/m3 1.13 ug/m3
2021-05-29 23:00 36.35 ug/m3 0.1 ug/m3 44.2 ug/m3 19.16 ug/m3 0.4 mg/m3 20.64 C 84.79 % N/A 0.58 m/s 56.32 Deg 17.16 ug/m3 1.42 ug/m3
2021-05-29 22:00 28.15 ug/m3 0.04 ug/m3 45.18 ug/m3 21.17 ug/m3 0.35 mg/m3 20.63 C 85.57 % N/A 1.2 m/s 56.47 Deg 16.47 ug/m3 0.68 ug/m3
2021-05-29 21:00 30.53 ug/m3 0.07 ug/m3 35.64 ug/m3 22.69 ug/m3 0.36 mg/m3 20.85 C 84.22 % N/A 1.43 m/s 55.95 Deg 14.79 ug/m3 1.05 ug/m3
2021-05-29 20:00 37.2 ug/m3 0.11 ug/m3 32.34 ug/m3 7.57 ug/m3 0.43 mg/m3 21.23 C 80.31 % N/A 1.61 m/s 50.62 Deg 22.36 ug/m3 1.6 ug/m3
2021-05-29 19:00 26.18 ug/m3 0 ug/m3 31.9 ug/m3 12.42 ug/m3 0.35 mg/m3 21.52 C 78.47 % N/A 2.1 m/s 48.72 Deg 12.09 ug/m3 1.99 ug/m3
2021-05-29 18:00 20.64 ug/m3 -0.01 ug/m3 37.02 ug/m3 22.35 ug/m3 0.32 mg/m3 21.88 C 77.67 % N/A 2.65 m/s 50.03 Deg 12.79 ug/m3 0.61 ug/m3
2021-05-29 17:00 50.19 ug/m3 0.1 ug/m3 30.54 ug/m3 8.68 ug/m3 0.34 mg/m3 22.29 C 69.23 % N/A 1.97 m/s 57.73 Deg 18.35 ug/m3 1.21 ug/m3
2021-05-29 16:00 32.79 ug/m3 -0.01 ug/m3 14.14 ug/m3 7.65 ug/m3 0.32 mg/m3 21.54 C 80.03 % N/A 2.85 m/s 54.1 Deg 12.76 ug/m3 0.79 ug/m3
2021-05-29 15:00 18.85 ug/m3 0 ug/m3 10.9 ug/m3 9.81 ug/m3 0.28 mg/m3 22.12 C 75.61 % N/A 4.13 m/s 47.43 Deg 11.22 ug/m3 1.24 ug/m3
2021-05-29 14:00 21.26 ug/m3 -0.04 ug/m3 15.19 ug/m3 14 ug/m3 0.27 mg/m3 22.53 C 73.68 % N/A 4.43 m/s 47.03 Deg 9.74 ug/m3 0.39 ug/m3
2021-05-29 13:00 19.53 ug/m3 0.05 ug/m3 11.2 ug/m3 17.93 ug/m3 0.28 mg/m3 21.95 C 78.75 % N/A 4.72 m/s 49.32 Deg 10.57 ug/m3 0.52 ug/m3
2021-05-29 12:00 26.82 ug/m3 0.14 ug/m3 14.6 ug/m3 20.12 ug/m3 0.31 mg/m3 22.14 C 76.44 % N/A 4.82 m/s 50.62 Deg 15.88 ug/m3 0.58 ug/m3
2021-05-29 11:00 27.72 ug/m3 0.12 ug/m3 26.12 ug/m3 40.25 ug/m3 0.33 mg/m3 21.49 C 81.14 % N/A 5.54 m/s 51.03 Deg 18 ug/m3 1.33 ug/m3
2021-05-29 10:00 25.12 ug/m3 0.06 ug/m3 19.73 ug/m3 24.54 ug/m3 0.38 mg/m3 21.12 C 82.77 % N/A 5.43 m/s 48.72 Deg 15.49 ug/m3 0.49 ug/m3
2021-05-29 09:00 18.02 ug/m3 -0.01 ug/m3 21.5 ug/m3 21.08 ug/m3 0.25 mg/m3 20.73 C 84.66 % N/A 5.74 m/s 51.9 Deg 12.43 ug/m3 0.97 ug/m3
2021-05-29 08:00 16.05 ug/m3 -0.03 ug/m3 21.49 ug/m3 37.05 ug/m3 0.26 mg/m3 20.46 C 85.57 % N/A 5.96 m/s 49.13 Deg 12.24 ug/m3 1.54 ug/m3
2021-05-29 07:00 17.37 ug/m3 -0.08 ug/m3 15.3 ug/m3 4.22 ug/m3 0.2 mg/m3 20.34 C 84.66 % N/A 5.06 m/s 52.03 Deg 7.34 ug/m3 0.37 ug/m3
2021-05-29 06:00 16.85 ug/m3 -0.01 ug/m3 19.25 ug/m3 4.04 ug/m3 0.2 mg/m3 20.08 C 84.33 % N/A 3.56 m/s 49.3 Deg 10.54 ug/m3 1.33 ug/m3
2021-05-29 05:00 14.98 ug/m3 -0.07 ug/m3 34.72 ug/m3 5.65 ug/m3 0.16 mg/m3 20.11 C 86.73 % N/A 2.75 m/s 42.02 Deg 2.43 ug/m3 0.28 ug/m3
2021-05-29 04:00 3.87 ug/m3 0.31 ug/m3 21.93 ug/m3 7.18 ug/m3 0.14 mg/m3 20.15 C 88.24 % N/A 2.61 m/s 44.55 Deg 3.25 ug/m3 0.37 ug/m3
2021-05-29 03:00 5.32 ug/m3 0.26 ug/m3 24.07 ug/m3 13.11 ug/m3 0.37 mg/m3 20.24 C 88.6 % N/A 2.69 m/s 46.37 Deg 0.79 ug/m3 0.31 ug/m3
2021-05-29 02:00 8.75 ug/m3 -0.1 ug/m3 33.31 ug/m3 12.36 ug/m3 0.6 mg/m3 20.49 C 86.68 % N/A 2.74 m/s 47.15 Deg 1.37 ug/m3 0.58 ug/m3
2021-05-29 01:00 10.51 ug/m3 -0.14 ug/m3 28.73 ug/m3 18.98 ug/m3 0.6 mg/m3 20.58 C 85.17 % N/A 3.37 m/s 47.87 Deg 1.13 ug/m3 0.34 ug/m3
2021-05-29 00:00 15.27 ug/m3 -0.02 ug/m3 29.88 ug/m3 17.26 ug/m3 0.65 mg/m3 20.64 C 85.19 % N/A 3.59 m/s 51.08 Deg 4.5 ug/m3 0.58 ug/m3
2021-05-28 23:00 27.46 ug/m3 -0.06 ug/m3 38.02 ug/m3 26.15 ug/m3 0.66 mg/m3 20.81 C 84.33 % N/A 3.72 m/s 51.63 Deg 7.46 ug/m3 0.34 ug/m3
2021-05-28 22:00 19.82 ug/m3 -0.02 ug/m3 35.94 ug/m3 13.41 ug/m3 0.69 mg/m3 21.08 C 80.75 % N/A 3.73 m/s 55.93 Deg 10.2 ug/m3 0.34 ug/m3
2021-05-28 21:00 21.26 ug/m3 0.01 ug/m3 28.04 ug/m3 9.28 ug/m3 0.68 mg/m3 20.96 C 82.51 % N/A 4.91 m/s 55.73 Deg 10.63 ug/m3 0.44 ug/m3
2021-05-28 20:00 19.18 ug/m3 0.13 ug/m3 19.36 ug/m3 18.56 ug/m3 0.79 mg/m3 21.04 C 82.49 % N/A 4.27 m/s 51.53 Deg 17.08 ug/m3 0.58 ug/m3
2021-05-28 19:00 20.28 ug/m3 0.12 ug/m3 11.78 ug/m3 1.06 ug/m3 0.81 mg/m3 21.27 C 79.02 % N/A 4.99 m/s 52.65 Deg 14.61 ug/m3 0.81 ug/m3
2021-05-28 18:00 16.05 ug/m3 0.29 ug/m3 17.47 ug/m3 2.12 ug/m3 0.99 mg/m3 21.83 C 72.04 % N/A 4.64 m/s 56.33 Deg 58.45 ug/m3 0.73 ug/m3
2021-05-28 17:00 25.29 ug/m3 0.3 ug/m3 31.6 ug/m3 11.6 ug/m3 0.48 mg/m3 22.02 C 70.27 % N/A 4.32 m/s 52.53 Deg 23.17 ug/m3 0.63 ug/m3
2021-05-28 16:00 27.27 ug/m3 0.14 ug/m3 40.28 ug/m3 8.65 ug/m3 0.36 mg/m3 22.28 C 68.14 % N/A 4.85 m/s 55.5 Deg 18.27 ug/m3 1.21 ug/m3
2021-05-28 15:00 22.89 ug/m3 0.11 ug/m3 25.28 ug/m3 8.09 ug/m3 0.27 mg/m3 22 C 68.93 % N/A 5.12 m/s 48.72 Deg 18.43 ug/m3 2.7 ug/m3
2021-05-28 14:00 27.05 ug/m3 0.1 ug/m3 23.32 ug/m3 9.62 ug/m3 0.28 mg/m3 21.54 C 72.46 % N/A 5.68 m/s 52.45 Deg 15.08 ug/m3 0.7 ug/m3
2021-05-28 13:00 26.93 ug/m3 0.16 ug/m3 18.64 ug/m3 17.49 ug/m3 0.27 mg/m3 22.27 C 61.2 % N/A 5.06 m/s 50.48 Deg 22.06 ug/m3 0.79 ug/m3
2021-05-28 12:00 29.15 ug/m3 0.27 ug/m3 27.81 ug/m3 28.82 ug/m3 0.34 mg/m3 22.35 C 61.84 % N/A 3.68 m/s 50.65 Deg 27.93 ug/m3 0.82 ug/m3
2021-05-28 11:00 36.54 ug/m3 0.27 ug/m3 46.85 ug/m3 26.75 ug/m3 0.32 mg/m3 22.17 C 71.89 % N/A 3.37 m/s 42.47 Deg 30.85 ug/m3 0.94 ug/m3
2021-05-28 10:00 32.74 ug/m3 0.36 ug/m3 55.89 ug/m3 26.32 ug/m3 0.3 mg/m3 22.6 C 62.51 % N/A 3.06 m/s 44.7 Deg 27.71 ug/m3 1.76 ug/m3
2021-05-28 09:00 40.39 ug/m3 0.46 ug/m3 79 ug/m3 48.93 ug/m3 0.38 mg/m3 23.26 C 51.01 % N/A 2.09 m/s 52.32 Deg 31.65 ug/m3 1.6 ug/m3
2021-05-28 08:00 61.26 ug/m3 0.59 ug/m3 54.79 ug/m3 12.29 ug/m3 0.49 mg/m3 23.02 C 47.3 % N/A 0.83 m/s 47.82 Deg 46.55 ug/m3 2.05 ug/m3
2021-05-28 07:00 63.26 ug/m3 0.5 ug/m3 35.09 ug/m3 17.27 ug/m3 0.51 mg/m3 22.28 C 54.82 % N/A 0.75 m/s 27.78 Deg 35.33 ug/m3 3.23 ug/m3
2021-05-28 06:00 65.03 ug/m3 0.44 ug/m3 32.64 ug/m3 14.83 ug/m3 0.51 mg/m3 21.98 C 54.59 % N/A 0.56 m/s 216.82 Deg 33.89 ug/m3 1.05 ug/m3
2021-05-28 05:00 22.41 ug/m3 -0.05 ug/m3 17.43 ug/m3 22.14 ug/m3 0.2 mg/m3 21.13 C 71.2 % N/A 0.98 m/s 233.85 Deg 1.37 ug/m3 0.58 ug/m3
2021-05-28 04:00 11.09 ug/m3 -0.02 ug/m3 17.87 ug/m3 6.55 ug/m3 0.14 mg/m3 20.87 C 77.9 % N/A 0.74 m/s 233.01 Deg 0.31 ug/m3 0.37 ug/m3
2021-05-28 03:00 4.82 ug/m3 -0.14 ug/m3 29.53 ug/m3 11.61 ug/m3 0.11 mg/m3 20.79 C 81.31 % N/A 0.87 m/s 267.35 Deg -0.44 ug/m3 0.26 ug/m3
2021-05-28 02:00 4.56 ug/m3 -0.09 ug/m3 20.31 ug/m3 8.02 ug/m3 0.17 mg/m3 21.24 C 77.16 % N/A 0.77 m/s 329.85 Deg 0.13 ug/m3 0.39 ug/m3
2021-05-28 01:00 8.76 ug/m3 -0.05 ug/m3 24.11 ug/m3 8.85 ug/m3 0.23 mg/m3 21.75 C 67.44 % N/A 0.77 m/s 309.77 Deg 0.88 ug/m3 0.39 ug/m3
2021-05-28 00:00 10.25 ug/m3 -0.03 ug/m3 42.29 ug/m3 11.76 ug/m3 0.2 mg/m3 22.07 C 66.39 % N/A 0.79 m/s 309.82 Deg 0.45 ug/m3 0.47 ug/m3
2021-05-27 23:00 17.45 ug/m3 -0.02 ug/m3 29.26 ug/m3 14.93 ug/m3 0.25 mg/m3 22.66 C 59.44 % N/A 0.66 m/s 305.02 Deg 0.59 ug/m3 0.71 ug/m3
2021-05-27 22:00 27.51 ug/m3 -0.03 ug/m3 35.87 ug/m3 28.8 ug/m3 0.31 mg/m3 22.76 C 57.64 % N/A 0.84 m/s 275.5 Deg 2.2 ug/m3 0.89 ug/m3
2021-05-27 21:00 26.19 ug/m3 -0.05 ug/m3 34.65 ug/m3 6.42 ug/m3 0.3 mg/m3 22.57 C 64.58 % N/A 1.24 m/s 263.03 Deg 1.65 ug/m3 1.45 ug/m3
2021-05-27 20:00 27.78 ug/m3 -0 ug/m3 21.55 ug/m3 9.5 ug/m3 0.35 mg/m3 23.17 C 63.7 % N/A 1.17 m/s 294.73 Deg 4.1 ug/m3 2.78 ug/m3
2021-05-27 19:00 35.94 ug/m3 0.27 ug/m3 23.75 ug/m3 12.53 ug/m3 0.61 mg/m3 23.24 C 61.68 % N/A 1.65 m/s 64.13 Deg 23.21 ug/m3 1.26 ug/m3
2021-05-27 18:00 41.15 ug/m3 0.3 ug/m3 24.21 ug/m3 8.65 ug/m3 0.5 mg/m3 24.2 C 58.84 % N/A 1.64 m/s 55.42 Deg 18.4 ug/m3 1.76 ug/m3
2021-05-27 17:00 32.99 ug/m3 0.22 ug/m3 18.08 ug/m3 14.37 ug/m3 0.4 mg/m3 24.41 C 57.49 % N/A 2.13 m/s 44.7 Deg 23.85 ug/m3 0.63 ug/m3
2021-05-27 16:00 33.1 ug/m3 0.2 ug/m3 20.17 ug/m3 11.47 ug/m3 0.43 mg/m3 25.16 C 50.76 % N/A 2.2 m/s 104.75 Deg 16.77 ug/m3 1 ug/m3
2021-05-27 15:00 32.58 ug/m3 0.22 ug/m3 31.32 ug/m3 6.57 ug/m3 0.4 mg/m3 23.49 C 58.19 % N/A 3.03 m/s 56.03 Deg 24.19 ug/m3 0.7 ug/m3
2021-05-27 14:00 30.7 ug/m3 0.24 ug/m3 24.35 ug/m3 5.8 ug/m3 0.38 mg/m3 22.69 C 63.72 % N/A 3.51 m/s 54.87 Deg 22.66 ug/m3 1.31 ug/m3
2021-05-27 13:00 34.06 ug/m3 0.24 ug/m3 23.39 ug/m3 8.26 ug/m3 0.45 mg/m3 22.45 C 69.69 % N/A 3.56 m/s 55.4 Deg 24.52 ug/m3 0.52 ug/m3
2021-05-27 12:00 31.53 ug/m3 0.36 ug/m3 23.63 ug/m3 14.57 ug/m3 0.39 mg/m3 22.31 C 69.03 % N/A 3.02 m/s 53.57 Deg 32.47 ug/m3 0.79 ug/m3
2021-05-27 11:00 33.27 ug/m3 0.32 ug/m3 32.58 ug/m3 22.61 ug/m3 0.37 mg/m3 21.68 C 71.81 % N/A 3.26 m/s 54.6 Deg 28.64 ug/m3 0.79 ug/m3
2021-05-27 10:00 29.54 ug/m3 0.32 ug/m3 45.61 ug/m3 29.32 ug/m3 0.42 mg/m3 21.91 C 72.87 % N/A 2.96 m/s 53.25 Deg 25.31 ug/m3 2.05 ug/m3
2021-05-27 09:00 37.07 ug/m3 0.4 ug/m3 61.86 ug/m3 25.51 ug/m3 0.4 mg/m3 22.09 C 69.95 % N/A 2.82 m/s 45.47 Deg 27.35 ug/m3 1.55 ug/m3
2021-05-27 08:00 69.7 ug/m3 0.8 ug/m3 56.92 ug/m3 31.82 ug/m3 0.56 mg/m3 22.97 C 55.58 % N/A 1.21 m/s 119.18 Deg 50.99 ug/m3 2.1 ug/m3
2021-05-27 07:00 68.04 ug/m3 0.51 ug/m3 35.72 ug/m3 13.38 ug/m3 0.47 mg/m3 21.06 C 64.94 % N/A 0.9 m/s 175.2 Deg 32.02 ug/m3 1.68 ug/m3
2021-05-27 06:00 55.18 ug/m3 0.29 ug/m3 22.69 ug/m3 4.73 ug/m3 0.43 mg/m3 20.06 C 72.83 % N/A 0.83 m/s 183.05 Deg 18.34 ug/m3 1.26 ug/m3
2021-05-27 05:00 19.77 ug/m3 0.05 ug/m3 31.59 ug/m3 6.76 ug/m3 0.19 mg/m3 19.7 C 78.9 % N/A 1.87 m/s 228.38 Deg 3.13 ug/m3 0.34 ug/m3
2021-05-27 04:00 12.71 ug/m3 0.08 ug/m3 23.74 ug/m3 3.92 ug/m3 0.15 mg/m3 20.32 C 67.79 % N/A 1.36 m/s 242.51 Deg -0.07 ug/m3 1.55 ug/m3
2021-05-27 03:00 15.07 ug/m3 0.13 ug/m3 13 ug/m3 4.81 ug/m3 0.14 mg/m3 21.08 C 48.48 % N/A 0.43 m/s 255.84 Deg 1.78 ug/m3 0.49 ug/m3
2021-05-27 02:00 10.62 ug/m3 0.05 ug/m3 15.19 ug/m3 6.19 ug/m3 0.11 mg/m3 21.42 C 44.21 % N/A 0.32 m/s 239.37 Deg -0.14 ug/m3 0.56 ug/m3
2021-05-27 01:00 16.85 ug/m3 0.03 ug/m3 23.32 ug/m3 3.41 ug/m3 0.15 mg/m3 21.4 C 41.89 % N/A 0.75 m/s 220.23 Deg -0.05 ug/m3 1.1 ug/m3
2021-05-27 00:00 27.52 ug/m3 0.03 ug/m3 20.16 ug/m3 5.55 ug/m3 0.22 mg/m3 21.57 C 39.75 % N/A 0.91 m/s 228.7 Deg 0.26 ug/m3 0.94 ug/m3
2021-05-26 23:00 28.14 ug/m3 0.05 ug/m3 21.17 ug/m3 10.03 ug/m3 0.24 mg/m3 21.75 C 42.47 % N/A 0.74 m/s 237.06 Deg 1.8 ug/m3 0.94 ug/m3
2021-05-26 22:00 19.65 ug/m3 0.01 ug/m3 35.92 ug/m3 17.74 ug/m3 0.21 mg/m3 21.5 C 54.01 % N/A 1.05 m/s 222.2 Deg 0.62 ug/m3 0.63 ug/m3
2021-05-26 21:00 18.61 ug/m3 -0.02 ug/m3 29.54 ug/m3 8.43 ug/m3 0.24 mg/m3 21.09 C 65.1 % N/A 1.28 m/s 251.77 Deg 0.29 ug/m3 0.7 ug/m3
2021-05-26 20:00 22.15 ug/m3 -0 ug/m3 26.64 ug/m3 8 ug/m3 0.22 mg/m3 21.18 C 66.46 % N/A 1.98 m/s 245.43 Deg 1.7 ug/m3 0.7 ug/m3
2021-05-26 19:00 26.12 ug/m3 0.02 ug/m3 25.73 ug/m3 12.78 ug/m3 0.27 mg/m3 22.27 C 57.56 % N/A 2.28 m/s 267.33 Deg 2.08 ug/m3 1.07 ug/m3
2021-05-26 18:00 31.14 ug/m3 0.1 ug/m3 26.32 ug/m3 1.46 ug/m3 0.27 mg/m3 22.62 C 58.86 % N/A 1.77 m/s 321.63 Deg 8 ug/m3 1.63 ug/m3
2021-05-26 17:00 28.41 ug/m3 0.2 ug/m3 11.8 ug/m3 1.25 ug/m3 0.33 mg/m3 22.68 C 52.05 % N/A 2.45 m/s 28.08 Deg 17.92 ug/m3 1.23 ug/m3
2021-05-26 16:00 24.85 ug/m3 0.27 ug/m3 10.73 ug/m3 2.5 ug/m3 0.32 mg/m3 22.2 C 52.22 % N/A 3.32 m/s 57.25 Deg 27.45 ug/m3 4.67 ug/m3
2021-05-26 15:00 28.85 ug/m3 0.23 ug/m3 20.26 ug/m3 5.01 ug/m3 0.29 mg/m3 23.3 C 45.4 % N/A 3.02 m/s 38.53 Deg 20.42 ug/m3 0.52 ug/m3
2021-05-26 14:00 23.84 ug/m3 0.44 ug/m3 18.9 ug/m3 4.56 ug/m3 0.31 mg/m3 23.12 C 46.14 % N/A 3.08 m/s 37.75 Deg 27.9 ug/m3 0.65 ug/m3
2021-05-26 13:00 27.38 ug/m3 0.26 ug/m3 18.15 ug/m3 7.6 ug/m3 0.31 mg/m3 22.55 C 52.5 % N/A 3.52 m/s 45.08 Deg 27.15 ug/m3 0.63 ug/m3
2021-05-26 12:00 22.63 ug/m3 0.16 ug/m3 13.56 ug/m3 15.21 ug/m3 0.26 mg/m3 23.37 C 43.62 % N/A 2.92 m/s 103.13 Deg 19.4 ug/m3 0.94 ug/m3
2021-05-26 11:00 26.46 ug/m3 0.14 ug/m3 18.79 ug/m3 22.92 ug/m3 0.29 mg/m3 24.44 C 41.65 % N/A 1.98 m/s 181.22 Deg 18.57 ug/m3 0.97 ug/m3
2021-05-26 10:00 30.17 ug/m3 0.08 ug/m3 34.55 ug/m3 36 ug/m3 0.29 mg/m3 23.9 C 57.78 % N/A 1.65 m/s 344.4 Deg 13.77 ug/m3 1.84 ug/m3
2021-05-26 09:00 37.81 ug/m3 0.25 ug/m3 50.58 ug/m3 42.2 ug/m3 0.41 mg/m3 22.14 C 72.71 % N/A 1.55 m/s 107.27 Deg 28.62 ug/m3 2.38 ug/m3
2021-05-26 08:00 36.18 ug/m3 0.18 ug/m3 52.34 ug/m3 29.6 ug/m3 0.4 mg/m3 20.67 C 81.57 % N/A 1.51 m/s 108.47 Deg 24.04 ug/m3 2.83 ug/m3
2021-05-26 07:00 31.92 ug/m3 0.21 ug/m3 41.68 ug/m3 18.57 ug/m3 0.44 mg/m3 19.9 C 84.84 % N/A 1.89 m/s 41.07 Deg 28.91 ug/m3 1.18 ug/m3
2021-05-26 06:00 21.38 ug/m3 0.15 ug/m3 37.44 ug/m3 12.42 ug/m3 0.35 mg/m3 19.65 C 82.52 % N/A 2.56 m/s 52.07 Deg 21.85 ug/m3 1.26 ug/m3
2021-05-26 05:00 17.11 ug/m3 0 ug/m3 42.18 ug/m3 11.09 ug/m3 0.19 mg/m3 19.52 C 81.11 % N/A 2.05 m/s 49.17 Deg 9.39 ug/m3 0.58 ug/m3
2021-05-26 04:00 8.99 ug/m3 -0.02 ug/m3 35.69 ug/m3 8.6 ug/m3 0.16 mg/m3 19.41 C 85.01 % N/A 1.26 m/s 51.38 Deg 1.44 ug/m3 1.05 ug/m3
2021-05-26 03:00 12.09 ug/m3 -0.05 ug/m3 35.6 ug/m3 8.64 ug/m3 0.11 mg/m3 19.6 C 84.8 % N/A 1.14 m/s 53.22 Deg 1.6 ug/m3 1.07 ug/m3
2021-05-26 02:00 17.37 ug/m3 -0.12 ug/m3 46.68 ug/m3 11.55 ug/m3 0.18 mg/m3 20.01 C 79.75 % N/A 0.95 m/s 58.98 Deg 1.17 ug/m3 0.45 ug/m3
2021-05-26 01:00 40.92 ug/m3 -0.1 ug/m3 46.64 ug/m3 14.05 ug/m3 0.19 mg/m3 19.96 C 80.88 % N/A 0.2 m/s 32.34 Deg 1.71 ug/m3 1.21 ug/m3
2021-05-26 00:00 12.56 ug/m3 -0.02 ug/m3 41.07 ug/m3 17.83 ug/m3 0.2 mg/m3 19.74 C 84.78 % N/A 1.32 m/s 58.1 Deg 6.63 ug/m3 1.31 ug/m3
2021-05-25 23:00 20.02 ug/m3 -0.09 ug/m3 46.72 ug/m3 26.69 ug/m3 0.24 mg/m3 20.55 C 76.5 % N/A 1.13 m/s 174.8 Deg 4.95 ug/m3 0.68 ug/m3
2021-05-25 22:00 24.98 ug/m3 0.05 ug/m3 52.58 ug/m3 16.84 ug/m3 0.31 mg/m3 21.07 C 72.31 % N/A 1.13 m/s 189.35 Deg 7.74 ug/m3 1.15 ug/m3
2021-05-25 21:00 20.55 ug/m3 -0.06 ug/m3 55.96 ug/m3 15.47 ug/m3 0.24 mg/m3 21.26 C 73.03 % N/A 1.12 m/s 231.68 Deg 0.48 ug/m3 0.66 ug/m3
2021-05-25 20:00 22.26 ug/m3 -0.09 ug/m3 52.36 ug/m3 9.8 ug/m3 0.27 mg/m3 21.4 C 73.46 % N/A 1.73 m/s 247.42 Deg 1.21 ug/m3 0.84 ug/m3
2021-05-25 19:00 28.88 ug/m3 -0.05 ug/m3 47.31 ug/m3 16.05 ug/m3 0.3 mg/m3 22.65 C 67.49 % N/A 1.93 m/s 242.53 Deg 2.77 ug/m3 0.79 ug/m3
2021-05-25 18:00 22.25 ug/m3 -0.04 ug/m3 45.92 ug/m3 15.49 ug/m3 0.26 mg/m3 23.83 C 61.92 % N/A 2.22 m/s 244.12 Deg 2.22 ug/m3 0.76 ug/m3
2021-05-25 17:00 29.85 ug/m3 0.06 ug/m3 50.14 ug/m3 27.4 ug/m3 0.35 mg/m3 24.37 C 60.08 % N/A 1.77 m/s 299.63 Deg 8.85 ug/m3 1 ug/m3
2021-05-25 16:00 20.06 ug/m3 0.04 ug/m3 61.41 ug/m3 26.97 ug/m3 0.29 mg/m3 23.1 C 67.78 % N/A 2.24 m/s 335.37 Deg 9.18 ug/m3 0.61 ug/m3
2021-05-25 15:00 27.75 ug/m3 0.07 ug/m3 41.94 ug/m3 9.43 ug/m3 0.3 mg/m3 23.77 C 64.9 % N/A 1.91 m/s 262.68 Deg 13.45 ug/m3 2.2 ug/m3
2021-05-25 14:00 32.94 ug/m3 0.18 ug/m3 37.47 ug/m3 5.24 ug/m3 0.36 mg/m3 23.78 C 64.78 % N/A 1.86 m/s 94.18 Deg 21.84 ug/m3 1.73 ug/m3
2021-05-25 13:00 27.31 ug/m3 0.12 ug/m3 23.09 ug/m3 5.77 ug/m3 0.29 mg/m3 23.52 C 63.1 % N/A 2.09 m/s 168.35 Deg 16.97 ug/m3 0.86 ug/m3
2021-05-25 12:00 29.99 ug/m3 0.18 ug/m3 14.7 ug/m3 7.78 ug/m3 0.33 mg/m3 22.76 C 62.4 % N/A 2.71 m/s 118.5 Deg 19.8 ug/m3 1.24 ug/m3
2021-05-25 11:00 31.86 ug/m3 0.21 ug/m3 18.44 ug/m3 14.16 ug/m3 0.3 mg/m3 22.11 C 61.01 % N/A 2.63 m/s 47.18 Deg 25.23 ug/m3 0.58 ug/m3
2021-05-25 10:00 35.93 ug/m3 0.19 ug/m3 30.7 ug/m3 25.56 ug/m3 0.36 mg/m3 22.16 C 55 % N/A 2.42 m/s 44.58 Deg 22.98 ug/m3 1.36 ug/m3
2021-05-25 09:00 33.81 ug/m3 0.2 ug/m3 42.92 ug/m3 26.81 ug/m3 0.34 mg/m3 21.8 C 59.42 % N/A 1.83 m/s 35.13 Deg 26.49 ug/m3 1.55 ug/m3
2021-05-25 08:00 42.16 ug/m3 0.18 ug/m3 57.49 ug/m3 28.43 ug/m3 0.37 mg/m3 21.17 C 69.16 % N/A 1.62 m/s 96.27 Deg 24.06 ug/m3 1.19 ug/m3
2021-05-25 07:00 38.96 ug/m3 0.06 ug/m3 38.75 ug/m3 13.66 ug/m3 0.34 mg/m3 20.12 C 82.37 % N/A 1.39 m/s 315.73 Deg 13.57 ug/m3 1.54 ug/m3
2021-05-25 06:00 37.06 ug/m3 0.02 ug/m3 31.2 ug/m3 9.14 ug/m3 0.3 mg/m3 19.68 C 87.45 % N/A 0.89 m/s 319.14 Deg 10.58 ug/m3 2.31 ug/m3
2021-05-24 17:00 24.1 ug/m3 0.02 ug/m3 21.6 ug/m3 8.12 ug/m3 0.32 mg/m3 21.33 C 77.28 % N/A 3.91 m/s 45.27 Deg 13.54 ug/m3 0.66 ug/m3
2021-05-24 16:00 22.64 ug/m3 0.1 ug/m3 24.98 ug/m3 3.61 ug/m3 0.32 mg/m3 21.21 C 77.65 % N/A 4.43 m/s 46.78 Deg 16 ug/m3 1.02 ug/m3
2021-05-24 15:00 34.55 ug/m3 0.22 ug/m3 27.94 ug/m3 7.23 ug/m3 0.35 mg/m3 22.85 C 66.84 % N/A 3.86 m/s 57.1 Deg 25.94 ug/m3 0.77 ug/m3
2021-05-24 14:00 31.4 ug/m3 0.14 ug/m3 20.56 ug/m3 6.15 ug/m3 0.29 mg/m3 22.24 C 71.34 % N/A 5.75 m/s 54.72 Deg 25.64 ug/m3 0.49 ug/m3
2021-05-24 13:00 33.67 ug/m3 0.13 ug/m3 12.53 ug/m3 10.45 ug/m3 0.33 mg/m3 22.15 C 73.38 % N/A 5.04 m/s 50.57 Deg 23.96 ug/m3 1.12 ug/m3
2021-05-24 12:00 34.58 ug/m3 0.17 ug/m3 15.99 ug/m3 16.68 ug/m3 0.35 mg/m3 21.96 C 74.16 % N/A 4.46 m/s 52.5 Deg 25.2 ug/m3 1.68 ug/m3
2021-05-24 11:00 27.15 ug/m3 0.16 ug/m3 19.51 ug/m3 27.93 ug/m3 0.35 mg/m3 21.43 C 77.82 % N/A 4.58 m/s 47.42 Deg 26.36 ug/m3 2.36 ug/m3
2021-05-24 10:00 23.5 ug/m3 0.22 ug/m3 31.72 ug/m3 49.6 ug/m3 0.36 mg/m3 21.1 C 79 % N/A 4.44 m/s 51.37 Deg 24.25 ug/m3 1.52 ug/m3
2021-05-24 09:00 31.17 ug/m3 0.22 ug/m3 28.65 ug/m3 71.19 ug/m3 0.36 mg/m3 20.38 C 82.61 % N/A 4.08 m/s 51.12 Deg 25.52 ug/m3 1.92 ug/m3
2021-05-24 08:00 36.13 ug/m3 0.3 ug/m3 36.08 ug/m3 12.57 ug/m3 0.41 mg/m3 20.29 C 82.42 % N/A 3.34 m/s 53.47 Deg 31.7 ug/m3 1.5 ug/m3
2021-05-24 07:00 40.14 ug/m3 0.24 ug/m3 19.55 ug/m3 16.69 ug/m3 0.39 mg/m3 19.65 C 87.07 % N/A 3.23 m/s 54.6 Deg 28.32 ug/m3 1.05 ug/m3
2021-05-24 06:00 43.42 ug/m3 0.18 ug/m3 15.4 ug/m3 11.93 ug/m3 0.33 mg/m3 19.07 C 89.98 % N/A 2.14 m/s 57.6 Deg 21.32 ug/m3 0.86 ug/m3
2021-05-24 05:00 34.59 ug/m3 0.04 ug/m3 13.8 ug/m3 9.38 ug/m3 0.21 mg/m3 18.89 C 89.86 % N/A 2.12 m/s 64.03 Deg 10.63 ug/m3 0.49 ug/m3
2021-05-24 04:00 7.7 ug/m3 -0.07 ug/m3 17.73 ug/m3 6.16 ug/m3 0.14 mg/m3 19.02 C 90.64 % N/A 2.59 m/s 52.47 Deg 0.91 ug/m3 0.31 ug/m3
2021-05-24 03:00 7.63 ug/m3 -0.06 ug/m3 18.33 ug/m3 6.95 ug/m3 0.1 mg/m3 19.19 C 89.97 % N/A 2.22 m/s 47.02 Deg 0.19 ug/m3 0.49 ug/m3
2021-05-24 02:00 4.16 ug/m3 -0.04 ug/m3 26.74 ug/m3 9.76 ug/m3 0.15 mg/m3 19.39 C 88.48 % N/A 1.28 m/s 49.4 Deg 0.16 ug/m3 0.47 ug/m3
2021-05-24 01:00 29.92 ug/m3 -0.02 ug/m3 21.74 ug/m3 17.45 ug/m3 0.17 mg/m3 19.59 C 85.36 % N/A 1.71 m/s 57.23 Deg 2.92 ug/m3 0.37 ug/m3
2021-05-24 00:00 45.05 ug/m3 0.03 ug/m3 28.82 ug/m3 5.26 ug/m3 0.17 mg/m3 19.87 C 81.24 % N/A 1.37 m/s 133.77 Deg 7.44 ug/m3 0.28 ug/m3
2021-05-23 23:00 12.62 ug/m3 0.01 ug/m3 36.98 ug/m3 9.42 ug/m3 0.19 mg/m3 20.03 C 84.51 % N/A 1.76 m/s 134.82 Deg 1.79 ug/m3 0.28 ug/m3
2021-05-23 22:00 14.33 ug/m3 -0.01 ug/m3 26.77 ug/m3 13.38 ug/m3 0.2 mg/m3 20.19 C 84.53 % N/A 1.56 m/s 138.85 Deg 3.2 ug/m3 1.73 ug/m3
2021-05-23 21:00 37.97 ug/m3 0.09 ug/m3 29.92 ug/m3 4.02 ug/m3 0.34 mg/m3 20.77 C 77.69 % N/A 1.38 m/s 135.8 Deg 12.03 ug/m3 1.05 ug/m3
2021-05-23 20:00 33.17 ug/m3 0.16 ug/m3 19.48 ug/m3 5.81 ug/m3 0.35 mg/m3 21.19 C 71.97 % N/A 2.46 m/s 116.55 Deg 16.44 ug/m3 0.52 ug/m3
2021-05-23 19:00 23.73 ug/m3 0.14 ug/m3 15.89 ug/m3 7.75 ug/m3 0.31 mg/m3 21.72 C 65.29 % N/A 3.19 m/s 114.13 Deg 11.9 ug/m3 0.82 ug/m3
2021-05-23 18:00 20.53 ug/m3 0.12 ug/m3 18.73 ug/m3 7.47 ug/m3 0.25 mg/m3 22.4 C 60.98 % N/A 2.67 m/s 136.17 Deg 10.16 ug/m3 0.39 ug/m3
2021-05-23 17:00 26.93 ug/m3 0.17 ug/m3 14.49 ug/m3 10.74 ug/m3 0.28 mg/m3 23.07 C 58.54 % N/A 2.97 m/s 184.92 Deg 12.68 ug/m3 0.79 ug/m3
2021-05-23 16:00 18.03 ug/m3 0.1 ug/m3 7.34 ug/m3 5.95 ug/m3 0.26 mg/m3 23.13 C 60.96 % N/A 3.2 m/s 150.92 Deg 8.95 ug/m3 0.63 ug/m3
2021-05-23 15:00 16.15 ug/m3 0.12 ug/m3 6.23 ug/m3 4.37 ug/m3 0.25 mg/m3 23.4 C 56.37 % N/A 3.05 m/s 126.72 Deg 10.25 ug/m3 0.44 ug/m3
2021-05-23 14:00 15 ug/m3 0.07 ug/m3 7.35 ug/m3 6.58 ug/m3 0.23 mg/m3 23.46 C 51.81 % N/A 3.29 m/s 171.85 Deg 9.89 ug/m3 0.82 ug/m3
2021-05-23 13:00 18.94 ug/m3 0.14 ug/m3 9.43 ug/m3 5.01 ug/m3 0.29 mg/m3 23.31 C 58.68 % N/A 3.25 m/s 220.62 Deg 11.7 ug/m3 0.58 ug/m3
2021-05-23 12:00 26.57 ug/m3 0.15 ug/m3 11.6 ug/m3 7.78 ug/m3 0.33 mg/m3 22.91 C 58.37 % N/A 3.39 m/s 165.33 Deg 13.61 ug/m3 0.73 ug/m3
2021-05-23 11:00 18.14 ug/m3 0.08 ug/m3 19.47 ug/m3 9.52 ug/m3 0.28 mg/m3 22.93 C 55.62 % N/A 2.48 m/s 124.82 Deg 9.79 ug/m3 0.52 ug/m3
2021-05-23 10:00 18.68 ug/m3 0.1 ug/m3 21.48 ug/m3 14.65 ug/m3 0.32 mg/m3 22.08 C 62.7 % N/A 2.68 m/s 223.15 Deg 12.37 ug/m3 1.78 ug/m3
2021-05-23 09:00 22.95 ug/m3 0.16 ug/m3 30.29 ug/m3 22.59 ug/m3 0.35 mg/m3 21.21 C 70.82 % N/A 2.02 m/s 151.6 Deg 14.21 ug/m3 1 ug/m3
2021-05-23 08:00 18.83 ug/m3 0.05 ug/m3 26.05 ug/m3 27.74 ug/m3 0.27 mg/m3 20.39 C 76.05 % N/A 1.98 m/s 195.15 Deg 9.26 ug/m3 0.39 ug/m3
2021-05-23 07:00 18.98 ug/m3 0.02 ug/m3 31.41 ug/m3 5.73 ug/m3 0.23 mg/m3 19.54 C 81.67 % N/A 1.83 m/s 92.58 Deg 8.17 ug/m3 0.49 ug/m3
2021-05-23 06:00 25.83 ug/m3 -0.04 ug/m3 27.96 ug/m3 9.3 ug/m3 0.24 mg/m3 18.98 C 85.74 % N/A 1.06 m/s 143.32 Deg 3.93 ug/m3 0.37 ug/m3
2021-05-23 05:00 21.54 ug/m3 0.03 ug/m3 20.66 ug/m3 10.51 ug/m3 0.18 mg/m3 18.79 C 86.48 % N/A 1.13 m/s 155.73 Deg 2.78 ug/m3 0.39 ug/m3
2021-05-23 04:00 16.5 ug/m3 0.05 ug/m3 20.17 ug/m3 15.86 ug/m3 0.16 mg/m3 18.77 C 85.93 % N/A 0.93 m/s 175.05 Deg 0.58 ug/m3 0.34 ug/m3
2021-05-23 03:00 16.99 ug/m3 -0.01 ug/m3 16.47 ug/m3 10.24 ug/m3 0.12 mg/m3 18.76 C 85.2 % N/A 1.01 m/s 140.1 Deg -0.19 ug/m3 0.44 ug/m3
2021-05-23 02:00 22.44 ug/m3 0.03 ug/m3 12.02 ug/m3 13.14 ug/m3 0.16 mg/m3 18.9 C 84.59 % N/A 1.53 m/s 114.33 Deg 1.65 ug/m3 0.55 ug/m3
2021-05-23 01:00 34.16 ug/m3 0.02 ug/m3 17.37 ug/m3 12.66 ug/m3 0.26 mg/m3 18.98 C 82.75 % N/A 0.76 m/s 222.1 Deg 2.65 ug/m3 0.55 ug/m3
2021-05-23 00:00 24.51 ug/m3 0.01 ug/m3 29.87 ug/m3 19.4 ug/m3 0.18 mg/m3 19.09 C 81.27 % N/A 0.99 m/s 168.83 Deg 0.76 ug/m3 2.29 ug/m3
2021-05-22 23:00 25.75 ug/m3 0.05 ug/m3 27.34 ug/m3 4.79 ug/m3 0.22 mg/m3 19.29 C 79.5 % N/A 1.56 m/s 147.12 Deg 4.28 ug/m3 0.49 ug/m3
2021-05-22 22:00 17.35 ug/m3 0.11 ug/m3 19.73 ug/m3 5.24 ug/m3 0.22 mg/m3 19.41 C 77.9 % N/A 2.1 m/s 114.43 Deg 5.29 ug/m3 0.55 ug/m3
2021-05-22 21:00 14.94 ug/m3 0.06 ug/m3 26.01 ug/m3 5.61 ug/m3 0.22 mg/m3 19.57 C 75.87 % N/A 2.57 m/s 108.77 Deg 5.07 ug/m3 0.6 ug/m3
2021-05-22 20:00 25.08 ug/m3 0.11 ug/m3 25.01 ug/m3 6.3 ug/m3 0.29 mg/m3 19.8 C 73.4 % N/A 2.66 m/s 119.57 Deg 9.72 ug/m3 0.68 ug/m3
2021-05-22 19:00 17.36 ug/m3 0.12 ug/m3 22.86 ug/m3 6.31 ug/m3 0.29 mg/m3 20.36 C 69.34 % N/A 2.84 m/s 128.47 Deg 10.05 ug/m3 0.94 ug/m3
2021-05-22 18:00 17.94 ug/m3 0.15 ug/m3 24.01 ug/m3 8.97 ug/m3 0.27 mg/m3 21.01 C 65.6 % N/A 3.11 m/s 118.9 Deg 10.5 ug/m3 0.42 ug/m3
2021-05-22 17:00 13.29 ug/m3 0.07 ug/m3 20.6 ug/m3 7.85 ug/m3 0.21 mg/m3 21.23 C 63.31 % N/A 3.09 m/s 127.72 Deg 7.24 ug/m3 0.37 ug/m3
2021-05-22 16:00 13.03 ug/m3 0.08 ug/m3 19.49 ug/m3 7.63 ug/m3 0.21 mg/m3 21.76 C 60.96 % N/A 2.85 m/s 143.45 Deg 5.57 ug/m3 0.39 ug/m3
2021-05-22 15:00 13.9 ug/m3 0.04 ug/m3 15.65 ug/m3 5.21 ug/m3 0.18 mg/m3 21.76 C 58.77 % N/A 2.86 m/s 149.83 Deg 6.44 ug/m3 0.76 ug/m3
2021-05-22 14:00 14.21 ug/m3 0.1 ug/m3 19.89 ug/m3 5.28 ug/m3 0.23 mg/m3 21.7 C 57.79 % N/A 2.86 m/s 127.47 Deg 8.88 ug/m3 0.47 ug/m3
2021-05-22 13:00 17.51 ug/m3 0.07 ug/m3 30.06 ug/m3 7.24 ug/m3 0.23 mg/m3 21.57 C 58.38 % N/A 2.97 m/s 145.7 Deg 6.5 ug/m3 0.37 ug/m3
2021-05-22 12:00 18.43 ug/m3 0.17 ug/m3 26.44 ug/m3 9.07 ug/m3 0.26 mg/m3 21.47 C 60.46 % N/A 2.82 m/s 152.32 Deg 9.54 ug/m3 0.81 ug/m3
2021-05-22 11:00 22.44 ug/m3 0.19 ug/m3 23.41 ug/m3 12.33 ug/m3 0.28 mg/m3 21.19 C 61.77 % N/A 2.83 m/s 132.47 Deg 11.13 ug/m3 0.68 ug/m3
2021-05-22 10:00 19.09 ug/m3 0.17 ug/m3 20.21 ug/m3 22.11 ug/m3 0.26 mg/m3 20.9 C 61.45 % N/A 2.83 m/s 144.58 Deg 10.15 ug/m3 0.81 ug/m3
2021-05-22 09:00 26.27 ug/m3 0.22 ug/m3 32.43 ug/m3 13.31 ug/m3 0.27 mg/m3 20.29 C 66.21 % N/A 2.6 m/s 132.38 Deg 12.98 ug/m3 0.47 ug/m3
2021-05-22 08:00 18 ug/m3 0.14 ug/m3 34.25 ug/m3 10.15 ug/m3 0.24 mg/m3 19.96 C 66.35 % N/A 2.28 m/s 147.28 Deg 7.85 ug/m3 0.39 ug/m3
2021-05-22 07:00 30.54 ug/m3 0.16 ug/m3 40.67 ug/m3 13.87 ug/m3 0.24 mg/m3 19.48 C 68.5 % N/A 1.78 m/s 154.85 Deg 9.51 ug/m3 0.82 ug/m3
2021-05-22 06:00 39.39 ug/m3 0.15 ug/m3 24.18 ug/m3 8.29 ug/m3 0.32 mg/m3 18.5 C 70.41 % N/A 0.55 m/s 224.7 Deg 4.55 ug/m3 1.15 ug/m3
2021-05-22 05:00 27.76 ug/m3 0.16 ug/m3 26.89 ug/m3 5.61 ug/m3 0.23 mg/m3 17.95 C 71.49 % N/A 0.37 m/s 206.2 Deg 4.12 ug/m3 0.34 ug/m3
2021-05-22 04:00 10.76 ug/m3 0.1 ug/m3 17.88 ug/m3 3.44 ug/m3 0.14 mg/m3 18.09 C 70.4 % N/A 0.48 m/s 218.44 Deg 0.48 ug/m3 0.26 ug/m3
2021-05-22 03:00 8.68 ug/m3 0.02 ug/m3 15.04 ug/m3 5.64 ug/m3 0.09 mg/m3 18.27 C 70.52 % N/A 0.63 m/s 174.05 Deg 0.02 ug/m3 0.21 ug/m3
2021-05-22 02:00 8.94 ug/m3 0.04 ug/m3 21.92 ug/m3 8.6 ug/m3 0.13 mg/m3 18.4 C 72.09 % N/A 0.89 m/s 145.77 Deg -0.1 ug/m3 0.23 ug/m3
2021-05-22 01:00 6.77 ug/m3 0.03 ug/m3 21.89 ug/m3 15.1 ug/m3 0.13 mg/m3 18.72 C 71.1 % N/A 0.92 m/s 166.72 Deg -0.06 ug/m3 0.23 ug/m3
2021-05-22 00:00 7.15 ug/m3 0.1 ug/m3 32.09 ug/m3 13.45 ug/m3 0.15 mg/m3 18.9 C 70.29 % N/A 1.25 m/s 160.87 Deg 0.07 ug/m3 0.34 ug/m3
2021-05-21 23:00 14.7 ug/m3 0.09 ug/m3 29.51 ug/m3 8.59 ug/m3 0.21 mg/m3 19.02 C 71.19 % N/A 1.17 m/s 153.32 Deg 1.76 ug/m3 1.57 ug/m3
2021-05-21 22:00 21.62 ug/m3 0.15 ug/m3 27.33 ug/m3 5.08 ug/m3 0.24 mg/m3 19.17 C 71.13 % N/A 1.01 m/s 150.65 Deg 3.34 ug/m3 0.58 ug/m3
2021-05-21 21:00 24.27 ug/m3 0.19 ug/m3 20.79 ug/m3 8.43 ug/m3 0.25 mg/m3 19.3 C 67.61 % N/A 1.26 m/s 142.48 Deg 6.52 ug/m3 0.56 ug/m3
2021-05-21 20:00 25.68 ug/m3 0.23 ug/m3 17.92 ug/m3 8.33 ug/m3 0.28 mg/m3 19.64 C 62.23 % N/A 1.56 m/s 130.65 Deg 11.67 ug/m3 0.49 ug/m3
2021-05-21 19:00 26.15 ug/m3 0.21 ug/m3 28.13 ug/m3 12.66 ug/m3 0.24 mg/m3 20.77 C 48.95 % N/A 1.75 m/s 140.03 Deg 7.82 ug/m3 0.84 ug/m3
2021-05-21 18:00 31.52 ug/m3 0.24 ug/m3 20.97 ug/m3 16.99 ug/m3 0.28 mg/m3 21.57 C 49.12 % N/A 1.87 m/s 120.33 Deg 12.88 ug/m3 0.91 ug/m3
2021-05-21 17:00 37.4 ug/m3 0.35 ug/m3 15.99 ug/m3 6.1 ug/m3 0.34 mg/m3 21.38 C 51.73 % N/A 2.42 m/s 119.32 Deg 22.27 ug/m3 1 ug/m3
2021-05-21 16:00 32.52 ug/m3 0.44 ug/m3 23.27 ug/m3 8.15 ug/m3 0.31 mg/m3 21.39 C 50.21 % N/A 2.7 m/s 140.73 Deg 26.3 ug/m3 0.52 ug/m3
2021-05-21 15:00 27.2 ug/m3 0.37 ug/m3 10.42 ug/m3 6.67 ug/m3 0.3 mg/m3 20.55 C 55.52 % N/A 4.46 m/s 53.35 Deg 25.28 ug/m3 0.42 ug/m3
2021-05-21 14:00 33.62 ug/m3 0.4 ug/m3 9.25 ug/m3 7.1 ug/m3 0.31 mg/m3 20.07 C 55.9 % N/A 5.01 m/s 47.73 Deg 28.15 ug/m3 0.39 ug/m3
2021-05-21 13:00 27.29 ug/m3 0.31 ug/m3 17.01 ug/m3 7.46 ug/m3 0.29 mg/m3 19.82 C 56.65 % N/A 4.81 m/s 48.77 Deg 23.35 ug/m3 0.49 ug/m3
2021-05-21 12:00 29.24 ug/m3 0.28 ug/m3 18.29 ug/m3 13.89 ug/m3 0.29 mg/m3 19.55 C 62.32 % N/A 5.22 m/s 49 Deg 19.11 ug/m3 0.55 ug/m3
2021-05-21 11:00 27.52 ug/m3 0.3 ug/m3 29.88 ug/m3 20.01 ug/m3 0.29 mg/m3 19.41 C 66.53 % N/A 5.12 m/s 53.18 Deg 21.05 ug/m3 0.56 ug/m3
2021-05-21 10:00 16.75 ug/m3 0.28 ug/m3 41.96 ug/m3 18.95 ug/m3 0.31 mg/m3 19.23 C 68.44 % N/A 4.43 m/s 53.25 Deg 23.01 ug/m3 0.63 ug/m3
2021-05-21 09:00 20.24 ug/m3 0.32 ug/m3 37.88 ug/m3 20.83 ug/m3 0.26 mg/m3 19.06 C 69.83 % N/A 4.43 m/s 55.03 Deg 21.44 ug/m3 0.65 ug/m3
2021-05-21 08:00 34.72 ug/m3 0.35 ug/m3 43.5 ug/m3 18.11 ug/m3 0.33 mg/m3 19.08 C 63.61 % N/A 3.66 m/s 46.68 Deg 22.23 ug/m3 0.87 ug/m3
2021-05-21 07:00 34.84 ug/m3 0.42 ug/m3 44.21 ug/m3 19.71 ug/m3 0.39 mg/m3 19.01 C 59.92 % N/A 2.37 m/s 39.47 Deg 25.67 ug/m3 1.78 ug/m3
2021-05-21 06:00 24.63 ug/m3 0.29 ug/m3 29.46 ug/m3 12.26 ug/m3 0.29 mg/m3 18.63 C 60.1 % N/A 2.25 m/s 39.2 Deg 21.09 ug/m3 0.7 ug/m3
2021-05-21 05:00 18.2 ug/m3 0.16 ug/m3 17.36 ug/m3 9.25 ug/m3 0.19 mg/m3 18.38 C 69.57 % N/A 1.47 m/s 33.18 Deg 8.89 ug/m3 0.58 ug/m3
2021-05-21 04:00 5.21 ug/m3 0.22 ug/m3 21.12 ug/m3 9.72 ug/m3 0.15 mg/m3 18.41 C 72.9 % N/A 2.1 m/s 38.75 Deg 1.47 ug/m3 0.39 ug/m3
2021-05-21 03:00 8.59 ug/m3 0.03 ug/m3 28.17 ug/m3 18.11 ug/m3 0.1 mg/m3 18.52 C 72.46 % N/A 2.3 m/s 44.08 Deg -0.03 ug/m3 0.31 ug/m3
2021-05-21 02:00 5.55 ug/m3 0.02 ug/m3 37.34 ug/m3 31.34 ug/m3 0.13 mg/m3 18.67 C 72.91 % N/A 2.03 m/s 47.73 Deg 0.05 ug/m3 0.31 ug/m3
2021-05-21 01:00 7.21 ug/m3 0.05 ug/m3 39.96 ug/m3 12.81 ug/m3 0.15 mg/m3 18.8 C 72.36 % N/A 1.79 m/s 46.23 Deg 1.19 ug/m3 0.42 ug/m3
2021-05-21 00:00 5.91 ug/m3 0.12 ug/m3 41.21 ug/m3 22.51 ug/m3 0.15 mg/m3 18.92 C 72.3 % N/A 2.06 m/s 47.13 Deg 1.58 ug/m3 0.47 ug/m3
2021-05-20 23:00 12.06 ug/m3 0.11 ug/m3 45.12 ug/m3 14.64 ug/m3 0.19 mg/m3 19.16 C 69.54 % N/A 1.79 m/s 29.33 Deg 2.11 ug/m3 0.39 ug/m3
2021-05-20 22:00 15.74 ug/m3 0.08 ug/m3 47.84 ug/m3 26.77 ug/m3 0.19 mg/m3 19.06 C 72.99 % N/A 2.06 m/s 311.77 Deg 1.47 ug/m3 0.31 ug/m3
2021-05-20 21:00 14.98 ug/m3 0.16 ug/m3 48.39 ug/m3 14.17 ug/m3 0.18 mg/m3 18.99 C 70.19 % N/A 2.83 m/s 300.78 Deg 1.35 ug/m3 0.37 ug/m3
2021-05-20 20:00 19.48 ug/m3 0.13 ug/m3 52.98 ug/m3 9.7 ug/m3 0.21 mg/m3 19.16 C 63.27 % N/A 2.84 m/s 286.7 Deg 1.44 ug/m3 0.52 ug/m3
2021-05-20 19:00 19.03 ug/m3 0.14 ug/m3 58.48 ug/m3 12.24 ug/m3 0.21 mg/m3 19.82 C 60.33 % N/A 3.65 m/s 271.53 Deg 2.16 ug/m3 0.79 ug/m3
2021-05-20 18:00 20.88 ug/m3 0.09 ug/m3 49.46 ug/m3 22.4 ug/m3 0.23 mg/m3 20.79 C 52.85 % N/A 3.38 m/s 268.58 Deg 2.8 ug/m3 0.63 ug/m3
2021-05-20 17:00 21.8 ug/m3 0.19 ug/m3 66.47 ug/m3 31.65 ug/m3 0.21 mg/m3 21.68 C 46.89 % N/A 4 m/s 269.63 Deg 4.46 ug/m3 0.44 ug/m3
2021-05-20 16:00 20.39 ug/m3 0.13 ug/m3 69.65 ug/m3 17.32 ug/m3 0.21 mg/m3 22.01 C 48.6 % N/A 4.36 m/s 275.88 Deg 4.66 ug/m3 0.63 ug/m3
2021-05-20 15:00 21.61 ug/m3 0.18 ug/m3 69.44 ug/m3 14.06 ug/m3 0.23 mg/m3 22.3 C 48.63 % N/A 4 m/s 272.78 Deg 6.55 ug/m3 0.84 ug/m3
2021-05-20 14:00 26.05 ug/m3 0.19 ug/m3 64.07 ug/m3 20.3 ug/m3 0.22 mg/m3 21.98 C 49.62 % N/A 4.43 m/s 269.08 Deg 7.71 ug/m3 0.63 ug/m3
2021-05-20 13:00 21.16 ug/m3 0.14 ug/m3 73.22 ug/m3 26.27 ug/m3 0.2 mg/m3 21.57 C 50.23 % N/A 4.28 m/s 281.6 Deg 5.63 ug/m3 0.94 ug/m3
2021-05-20 12:00 19.84 ug/m3 0.13 ug/m3 82.71 ug/m3 31.12 ug/m3 0.2 mg/m3 21.03 C 50.96 % N/A 4.57 m/s 286.17 Deg 5.59 ug/m3 0.58 ug/m3
2021-05-20 11:00 18.83 ug/m3 0.17 ug/m3 70.07 ug/m3 24.82 ug/m3 0.2 mg/m3 21.17 C 48.34 % N/A 4.13 m/s 287.08 Deg 6.14 ug/m3 0.7 ug/m3
2021-05-20 10:00 20.82 ug/m3 0.14 ug/m3 50.98 ug/m3 28.37 ug/m3 0.21 mg/m3 21.08 C 54.81 % N/A 3.9 m/s 280.97 Deg 6.41 ug/m3 0.56 ug/m3
2021-05-20 09:00 25 ug/m3 0.13 ug/m3 49.49 ug/m3 18.61 ug/m3 0.23 mg/m3 20.39 C 62.25 % N/A 3.8 m/s 264.48 Deg 7.92 ug/m3 0.7 ug/m3
2021-05-20 08:00 27.19 ug/m3 0.15 ug/m3 49.02 ug/m3 31.29 ug/m3 0.23 mg/m3 19.71 C 61.02 % N/A 4.31 m/s 262.8 Deg 8.9 ug/m3 0.65 ug/m3
2021-05-20 07:00 33.85 ug/m3 0.25 ug/m3 39.25 ug/m3 18.23 ug/m3 0.26 mg/m3 19.67 C 55.45 % N/A 3.41 m/s 257.02 Deg 9.95 ug/m3 1.63 ug/m3
2021-05-20 06:00 36.67 ug/m3 0.17 ug/m3 37.22 ug/m3 13.56 ug/m3 0.27 mg/m3 19.28 C 60.07 % N/A 2.76 m/s 255.57 Deg 7.96 ug/m3 0.58 ug/m3
2021-05-20 05:00 16.79 ug/m3 0.07 ug/m3 34.46 ug/m3 11.05 ug/m3 0.17 mg/m3 19.34 C 66.25 % N/A 3.22 m/s 266.77 Deg 1.75 ug/m3 0.26 ug/m3
2021-05-20 04:00 9.1 ug/m3 0.09 ug/m3 25.28 ug/m3 11.94 ug/m3 0.13 mg/m3 19.76 C 63.24 % N/A 2.89 m/s 263.58 Deg 0.06 ug/m3 0.28 ug/m3
2021-05-20 03:00 5.08 ug/m3 0.07 ug/m3 25.61 ug/m3 7.29 ug/m3 0.1 mg/m3 19.71 C 66.54 % N/A 2.75 m/s 260 Deg -0.41 ug/m3 0.18 ug/m3
2021-05-20 02:00 3.2 ug/m3 0.06 ug/m3 31.25 ug/m3 10.65 ug/m3 0.11 mg/m3 19.8 C 66.63 % N/A 2.81 m/s 253.8 Deg -0.4 ug/m3 0.21 ug/m3
2021-05-20 01:00 5.19 ug/m3 0.06 ug/m3 38.4 ug/m3 12.17 ug/m3 0.12 mg/m3 20.18 C 63.02 % N/A 1.84 m/s 269.32 Deg -0.38 ug/m3 0.23 ug/m3
2021-05-20 00:00 6.68 ug/m3 0.14 ug/m3 42.8 ug/m3 16.17 ug/m3 0.12 mg/m3 20.7 C 57.83 % N/A 1.38 m/s 256.75 Deg -0.16 ug/m3 0.26 ug/m3
2021-05-19 23:00 9.95 ug/m3 0.1 ug/m3 41.46 ug/m3 26.85 ug/m3 0.15 mg/m3 20.95 C 53.88 % N/A 1.27 m/s 235.7 Deg 0.27 ug/m3 0.44 ug/m3
2021-05-19 22:00 12.21 ug/m3 0.12 ug/m3 45.55 ug/m3 11.66 ug/m3 0.16 mg/m3 20.93 C 54.37 % N/A 1.64 m/s 245.6 Deg 0.48 ug/m3 0.49 ug/m3
2021-05-19 21:00 14.19 ug/m3 0.14 ug/m3 47.84 ug/m3 8.93 ug/m3 0.17 mg/m3 21.4 C 50.95 % N/A 2.57 m/s 245.4 Deg 0.34 ug/m3 0.6 ug/m3
2021-05-19 20:00 21.03 ug/m3 0.13 ug/m3 35.57 ug/m3 9.93 ug/m3 0.22 mg/m3 21.95 C 51.16 % N/A 1.46 m/s 228.07 Deg 0.51 ug/m3 0.79 ug/m3
2021-05-19 19:00 22.9 ug/m3 0.19 ug/m3 44.76 ug/m3 11.94 ug/m3 0.21 mg/m3 24 C 38.06 % N/A 1.69 m/s 237.82 Deg 1.44 ug/m3 0.68 ug/m3
2021-05-19 18:00 33.64 ug/m3 0.21 ug/m3 42.06 ug/m3 11.67 ug/m3 0.31 mg/m3 25.7 C 33.42 % N/A 1.56 m/s 291.82 Deg 7.79 ug/m3 1.02 ug/m3
2021-05-19 17:00 26.53 ug/m3 0.15 ug/m3 32.18 ug/m3 18.16 ug/m3 0.24 mg/m3 25.67 C 36.21 % N/A 1.97 m/s 301.35 Deg 7.4 ug/m3 1.63 ug/m3
2021-05-19 16:00 28.76 ug/m3 0.19 ug/m3 38.54 ug/m3 14.04 ug/m3 0.27 mg/m3 25.61 C 38.14 % N/A 2.03 m/s 306.38 Deg 10.02 ug/m3 0.6 ug/m3
2021-05-19 15:00 26.8 ug/m3 0.19 ug/m3 42.83 ug/m3 9.81 ug/m3 0.22 mg/m3 25.22 C 35.96 % N/A 3.03 m/s 307.1 Deg 10.22 ug/m3 0.6 ug/m3
2021-05-19 14:00 26.36 ug/m3 0.15 ug/m3 31.84 ug/m3 11.7 ug/m3 0.22 mg/m3 24.52 C 29.56 % N/A 2.87 m/s 292.53 Deg 10 ug/m3 0.58 ug/m3
2021-05-19 13:00 24.26 ug/m3 0.23 ug/m3 37.86 ug/m3 12.37 ug/m3 0.24 mg/m3 23.7 C 47.4 % N/A 2.77 m/s 324.8 Deg 14.64 ug/m3 0.65 ug/m3
2021-05-19 12:00 38.54 ug/m3 0.23 ug/m3 36.66 ug/m3 19.77 ug/m3 0.27 mg/m3 26.17 C 36.91 % N/A 2.09 m/s 294.3 Deg 14.31 ug/m3 0.73 ug/m3
2021-05-19 11:00 37.93 ug/m3 0.39 ug/m3 46.92 ug/m3 33.32 ug/m3 0.35 mg/m3 24.42 C 52.6 % N/A 1.61 m/s 256.25 Deg 24.11 ug/m3 1.12 ug/m3
2021-05-19 10:00 34.77 ug/m3 0.16 ug/m3 42.91 ug/m3 13.27 ug/m3 0.26 mg/m3 24.38 C 43.33 % N/A 2.24 m/s 275.57 Deg 10.93 ug/m3 0.84 ug/m3
2021-05-19 09:00 35.27 ug/m3 0.23 ug/m3 37.7 ug/m3 18.58 ug/m3 0.29 mg/m3 23.24 C 44.36 % N/A 2 m/s 255.18 Deg 11.64 ug/m3 1.36 ug/m3
2021-05-19 08:00 42.76 ug/m3 0.25 ug/m3 43.47 ug/m3 21.24 ug/m3 0.32 mg/m3 22.13 C 46.53 % N/A 2.08 m/s 246.13 Deg 14.41 ug/m3 1.1 ug/m3
2021-05-19 07:00 55.08 ug/m3 0.41 ug/m3 41.44 ug/m3 21.83 ug/m3 0.38 mg/m3 20.28 C 63.19 % N/A 1.79 m/s 243.92 Deg 22.97 ug/m3 1.29 ug/m3
2021-05-19 06:00 43.63 ug/m3 0.23 ug/m3 32.93 ug/m3 5.28 ug/m3 0.35 mg/m3 18.98 C 73.76 % N/A 1.77 m/s 251 Deg 12.55 ug/m3 1.89 ug/m3
2021-05-19 05:00 18.26 ug/m3 0.06 ug/m3 27.31 ug/m3 7.28 ug/m3 0.17 mg/m3 18.93 C 74.65 % N/A 1.52 m/s 231.15 Deg 2.23 ug/m3 0.39 ug/m3
2021-05-19 04:00 12.7 ug/m3 0.07 ug/m3 24.75 ug/m3 5.25 ug/m3 0.17 mg/m3 19.57 C 65.52 % N/A 0.95 m/s 256.6 Deg -0.06 ug/m3 0.34 ug/m3
2021-05-19 03:00 8.33 ug/m3 0.05 ug/m3 19.63 ug/m3 6.29 ug/m3 0.1 mg/m3 19.51 C 69.26 % N/A 1.05 m/s 245.65 Deg -0.55 ug/m3 0.31 ug/m3
2021-05-19 02:00 9.56 ug/m3 0.04 ug/m3 19 ug/m3 8.01 ug/m3 0.13 mg/m3 19.6 C 68.13 % N/A 1.27 m/s 244.37 Deg -0.56 ug/m3 0.28 ug/m3
2021-05-19 01:00 8.27 ug/m3 0.05 ug/m3 23.02 ug/m3 12.78 ug/m3 0.13 mg/m3 19.82 C 65.1 % N/A 1.48 m/s 242.83 Deg -0.48 ug/m3 0.39 ug/m3
2021-05-19 00:00 14.11 ug/m3 0.05 ug/m3 36.5 ug/m3 11.7 ug/m3 0.15 mg/m3 19.99 C 65.17 % N/A 1.01 m/s 237.75 Deg 0.22 ug/m3 0.44 ug/m3
2021-05-18 23:00 14.46 ug/m3 0.04 ug/m3 33.6 ug/m3 13.41 ug/m3 0.17 mg/m3 20.28 C 62.43 % N/A 1.02 m/s 264.63 Deg -0.23 ug/m3 0.52 ug/m3
2021-05-18 22:00 20.01 ug/m3 0.05 ug/m3 39.43 ug/m3 17.29 ug/m3 0.23 mg/m3 20.87 C 58.42 % N/A 1.03 m/s 276.68 Deg 0.02 ug/m3 0.63 ug/m3
2021-05-18 21:00 21.21 ug/m3 0.07 ug/m3 50.95 ug/m3 15.69 ug/m3 0.24 mg/m3 21.19 C 58.63 % N/A 1.48 m/s 242.2 Deg 0.23 ug/m3 0.73 ug/m3
2021-05-18 20:00 58.33 ug/m3 0.3 ug/m3 44.57 ug/m3 12.22 ug/m3 0.34 mg/m3 21.32 C 67.68 % N/A 1.15 m/s 165.98 Deg 14.74 ug/m3 1.18 ug/m3
2021-05-18 19:00 38.77 ug/m3 0.16 ug/m3 38.72 ug/m3 6.32 ug/m3 0.35 mg/m3 23.42 C 51.63 % N/A 1.17 m/s 298.2 Deg 8.08 ug/m3 0.84 ug/m3
2021-05-18 18:00 32.04 ug/m3 0.2 ug/m3 18.59 ug/m3 8.48 ug/m3 0.32 mg/m3 24.43 C 40.07 % N/A 1.66 m/s 245.5 Deg 11.66 ug/m3 0.91 ug/m3
2021-05-18 17:00 24.05 ug/m3 0.13 ug/m3 17.22 ug/m3 12.66 ug/m3 0.27 mg/m3 24.02 C 42.45 % N/A 1.86 m/s 326.7 Deg 8.67 ug/m3 1.4 ug/m3
2021-05-18 16:00 21.79 ug/m3 0.18 ug/m3 23.85 ug/m3 11.85 ug/m3 0.29 mg/m3 23.84 C 45.89 % N/A 2 m/s 338.83 Deg 12.81 ug/m3 0.65 ug/m3
2021-05-18 15:00 23.76 ug/m3 0.23 ug/m3 36.32 ug/m3 6.73 ug/m3 0.27 mg/m3 23.32 C 51.1 % N/A 2.22 m/s 249.82 Deg 15.87 ug/m3 0.37 ug/m3
2021-05-18 14:00 26.39 ug/m3 0.19 ug/m3 26.16 ug/m3 10.32 ug/m3 0.26 mg/m3 22.45 C 60.84 % N/A 2.15 m/s 252.65 Deg 13.59 ug/m3 0.68 ug/m3

It is to be noted that the data is provisional and subject to quality assurance procedures. For validated data kindly refer your request to contact.air@era.org.mt